Observation data for Sweetwater on 12/08/2018      Previous  Date       Current Mesonet Observations  Soil Data  Daily Summary Page  Observations in Plain Language
KSW1 080600Z 03016KT 00/00 A3023 RMK A01 T00010000  RH  100%=      5-min Rain = 0
KSW1 080601Z 03015KT 00/00 A3023 RMK A01 T00000000  RH  100%=      5-min Rain = 0.01
KSW1 080602Z 02017KT 00/00 A3023 RMK A01 T00010001  RH  100%=      5-min Rain = 0
KSW1 080603Z 02014KT 00/00 A3023 RMK A01 T00000000  RH  100%=      5-min Rain = 0
KSW1 080604Z 02015KT 00/00 A3023 RMK A01 T00010000  RH  100%=      5-min Rain = 0
KSW1 080605Z 02013KT 00/00 A3023 RMK A01 T00010001  RH  100%=      5-min Rain = 0
KSW1 080606Z 02012KT 00/00 A3023 RMK A01 T00010000  RH  100%=      5-min Rain = 0
KSW1 080607Z 02011KT 00/00 A3024 RMK A01 T00010001  RH  100%=      5-min Rain = 0
KSW1 080608Z 02009KT 00/00 A3024 RMK A01 T00010001  RH  100%=      5-min Rain = 0
KSW1 080609Z 02010KT 00/00 A3024 RMK A01 T00010001  RH  100%=      5-min Rain = 0
KSW1 080610Z 02012KT 00/00 A3023 RMK A01 T00010001  RH  100%=      5-min Rain = 0
KSW1 080611Z 03014KT 00/00 A3023 RMK A01 T00010001  RH  100%=      5-min Rain = 0
KSW1 080612Z 03015KT 00/00 A3023 RMK A01 T00000000  RH  100%=      5-min Rain = 0
KSW1 080613Z 03014KT 00/00 A3023 RMK A01 T00000000  RH  100%=      5-min Rain = 0
KSW1 080614Z 03012KT 00/00 A3022 RMK A01 T00010000  RH  100%=      5-min Rain = 0
KSW1 080615Z 03012KT 00/00 A3022 RMK A01 T00010001  RH  100%=      5-min Rain = 0
KSW1 080616Z 03013G18KT 00/00 A3022 RMK A01 T00010000  RH  100%=      5-min Rain = 0.01
KSW1 080617Z 03013KT 00/00 A3022 RMK A01 T00010001  RH  100%=      5-min Rain = 0
KSW1 080618Z 04016KT 00/00 A3022 RMK A01 T00010000  RH  100%=      5-min Rain = 0
KSW1 080619Z 03014KT 00/00 A3022 RMK A01 T00010000  RH  100%=      5-min Rain = 0
KSW1 080620Z 03014KT 00/00 A3022 RMK A01 T00000000  RH  100%=      5-min Rain = 0
KSW1 080621Z 02015KT 00/00 A3022 RMK A01 T00000000  RH  100%=      5-min Rain = 0
KSW1 080622Z 03015KT 00/00 A3022 RMK A01 T000000-0  RH  100%=      5-min Rain = 0
KSW1 080623Z 03013KT 00/00 A3022 RMK A01 T00-000-0  RH  100%=      5-min Rain = 0
KSW1 080624Z 03014KT 00/00 A3022 RMK A01 T00-000-0  RH  100%=      5-min Rain = 0
KSW1 080625Z 03013KT 00/00 A3022 RMK A01 T00-000-0  RH  100%=      5-min Rain = 0
KSW1 080626Z 03012KT 00/00 A3023 RMK A01 T00-000-0  RH  100%=      5-min Rain = 0
KSW1 080627Z 03014KT 00/00 A3023 RMK A01 T00-000-0  RH  100%=      5-min Rain = 0
KSW1 080628Z 03016KT 00/00 A3023 RMK A01 T00-000-0  RH  100%=      5-min Rain = 0
KSW1 080629Z 03014KT 00/00 A3023 RMK A01 T00-000-0  RH  100%=      5-min Rain = 0
KSW1 080630Z 03013KT 00/00 A3023 RMK A01 T00-000-0  RH  100%=      5-min Rain = 0
KSW1 080631Z 03012KT 00/00 A3023 RMK A01 T00-000-0  RH  100%=      5-min Rain = 0.01
KSW1 080632Z 02013KT 00/00 A3023 RMK A01 T00-000-0  RH  100%=      5-min Rain = 0
KSW1 080633Z 03011KT 00/00 A3023 RMK A01 T00-000-0  RH  100%=      5-min Rain = 0
KSW1 080634Z 03010KT 00/00 A3023 RMK A01 T00-000-0  RH  100%=      5-min Rain = 0
KSW1 080635Z 03012KT 00/00 A3023 RMK A01 T00-000-0  RH  100%=      5-min Rain = 0
KSW1 080636Z 03014KT M00/M00 A3024 RMK A01 T10011001  RH  100%=      5-min Rain = 0
KSW1 080637Z 03013KT 00/00 A3024 RMK A01 T000000-0  RH  100%=      5-min Rain = 0
KSW1 080638Z 03011KT 00/00 A3023 RMK A01 T00-000-1  RH  100%=      5-min Rain = 0
KSW1 080639Z 02010KT 00/00 A3023 RMK A01 T00-000-0  RH  100%=      5-min Rain = 0
KSW1 080640Z 02010G15KT 00/00 A3023 RMK A01 T00-000-0  RH  100%=      5-min Rain = 0
KSW1 080641Z 03010KT 00/00 A3023 RMK A01 T00-000-0  RH  100%=      5-min Rain = 0
KSW1 080642Z 03010KT M00/M00 A3023 RMK A01 T10011001  RH  100%=      5-min Rain = 0.01
KSW1 080643Z 03009KT 00/00 A3023 RMK A01 T00-000-0  RH  100%=      5-min Rain = 0
KSW1 080644Z 03010KT 00/00 A3023 RMK A01 T00-000-0  RH  100%=      5-min Rain = 0
KSW1 080645Z 03010KT 00/00 A3024 RMK A01 T00-000-1  RH  100%=      5-min Rain = 0
KSW1 080646Z 04013KT 00/00 A3024 RMK A01 T00-000-0  RH  100%=      5-min Rain = 0
KSW1 080647Z 03014KT 00/00 A3024 RMK A01 T00-000-0  RH  100%=      5-min Rain = 0
KSW1 080648Z 03013KT 00/00 A3023 RMK A01 T00-000-0  RH  100%=      5-min Rain = 0
KSW1 080649Z 03011KT 00/00 A3023 RMK A01 T00-000-0  RH  100%=      5-min Rain = 0.01
KSW1 080650Z 04012KT 00/00 A3023 RMK A01 T00-000-0  RH  100%=      5-min Rain = 0
KSW1 080651Z 03012KT 00/00 A3023 RMK A01 T00-000-1  RH  100%=      5-min Rain = 0
KSW1 080652Z 02011KT M00/M00 A3023 RMK A01 T10011001  RH  100%=      5-min Rain = 0
KSW1 080653Z 02012KT M00/M00 A3024 RMK A01 T10011001  RH  100%=      5-min Rain = 0
KSW1 080654Z 02013KT M00/M00 A3024 RMK A01 T10011001  RH  100%=      5-min Rain = 0
KSW1 080655Z 03015KT M00/M00 A3024 RMK A01 T10011001  RH  100%=      5-min Rain = 0.01
KSW1 080656Z 02012KT M00/M00 A3024 RMK A01 T10011001  RH  100%=      5-min Rain = 0
KSW1 080657Z 02012KT M00/M00 A3024 RMK A01 T10021002  RH  100%=      5-min Rain = 0
KSW1 080658Z 03013KT M00/M00 A3024 RMK A01 T10021002  RH  100%=      5-min Rain = 0
KSW1 080659Z 02011KT M00/M00 A3023 RMK A01 T10021002  RH  100%=      5-min Rain = 0
KSW1 080700Z 03012KT M00/M00 A3023 RMK A01 T10021002  RH  100%=      5-min Rain = 0.01
KSW1 080701Z 03012KT M00/M00 A3023 RMK A01 T10021002  RH  100%=      5-min Rain = 0
KSW1 080702Z 03012KT M00/M00 A3023 RMK A01 T10021002  RH  100%=      5-min Rain = 0
KSW1 080703Z 02012KT M00/M00 A3023 RMK A01 T10021002  RH  100%=      5-min Rain = 0
KSW1 080704Z 02012KT M00/M00 A3023 RMK A01 T10021002  RH  100%=      5-min Rain = 0.01
KSW1 080705Z 03015KT M00/M00 A3023 RMK A01 T10011002  RH  100%=      5-min Rain = 0
KSW1 080706Z 02013KT M00/M00 A3023 RMK A01 T10021002  RH  100%=      5-min Rain = 0.01
KSW1 080707Z 03013KT M00/M00 A3023 RMK A01 T10021002  RH  100%=      5-min Rain = 0
KSW1 080708Z 02015KT M00/M00 A3023 RMK A01 T10021002  RH  100%=      5-min Rain = 0
KSW1 080709Z 02014KT M00/M00 A3023 RMK A01 T10021002  RH  100%=      5-min Rain = 0.01
KSW1 080710Z 03015KT M00/M00 A3023 RMK A01 T10021002  RH  100%=      5-min Rain = 0
KSW1 080711Z 02012G17KT M00/M00 A3023 RMK A01 T10021002  RH  100%=      5-min Rain = 0
KSW1 080712Z 02014KT M00/M00 A3023 RMK A01 T10021002  RH  100%=      5-min Rain = 0
KSW1 080713Z 02014KT M00/M00 A3023 RMK A01 T10021002  RH  100%=      5-min Rain = 0.01
KSW1 080714Z 03012KT M00/M00 A3023 RMK A01 T10021002  RH  100%=      5-min Rain = 0
KSW1 080715Z 03015KT M00/M00 A3024 RMK A01 T10021002  RH  100%=      5-min Rain = 0
KSW1 080716Z 03014KT M00/M00 A3024 RMK A01 T10021002  RH  100%=      5-min Rain = 0
KSW1 080717Z 03012KT M00/M00 A3024 RMK A01 T10021002  RH  100%=      5-min Rain = 0
KSW1 080718Z 03014KT M00/M00 A3023 RMK A01 T10021002  RH  100%=      5-min Rain = 0.01
KSW1 080719Z 03013KT M00/M00 A3023 RMK A01 T10011001  RH  100%=      5-min Rain = 0
KSW1 080720Z 03013KT M00/M00 A3023 RMK A01 T10011001  RH  100%=      5-min Rain = 0
KSW1 080721Z 03014KT M00/M00 A3023 RMK A01 T10011001  RH  100%=      5-min Rain = 0
KSW1 080722Z 03012KT M00/M00 A3023 RMK A01 T10011001  RH  100%=      5-min Rain = 0
KSW1 080723Z 03012KT M00/M00 A3023 RMK A01 T10011001  RH  100%=      5-min Rain = 0.01
KSW1 080724Z 03009KT M00/M00 A3023 RMK A01 T10011001  RH  100%=      5-min Rain = 0
KSW1 080725Z 03010G15KT M00/M00 A3023 RMK A01 T10011001  RH  100%=      5-min Rain = 0
KSW1 080726Z 03012KT M00/M00 A3023 RMK A01 T10011002  RH  100%=      5-min Rain = 0
KSW1 080727Z 03011KT M00/M00 A3023 RMK A01 T10011001  RH  100%=      5-min Rain = 0
KSW1 080728Z 03010KT M00/M00 A3023 RMK A01 T10011001  RH  100%=      5-min Rain = 0
KSW1 080729Z 02009KT M00/M00 A3023 RMK A01 T10011001  RH  100%=      5-min Rain = 0
KSW1 080730Z 02011KT M00/M00 A3023 RMK A01 T10011001  RH  100%=      5-min Rain = 0.01
KSW1 080731Z 03013KT M00/M00 A3023 RMK A01 T10011001  RH  100%=      5-min Rain = 0
KSW1 080732Z 03012KT M00/M00 A3023 RMK A01 T10011001  RH  100%=      5-min Rain = 0
KSW1 080733Z 03011KT M00/M00 A3023 RMK A01 T10011001  RH  100%=      5-min Rain = 0
KSW1 080734Z 02011KT M00/M00 A3023 RMK A01 T10011001  RH  100%=      5-min Rain = 0
KSW1 080735Z 02014KT M00/M00 A3023 RMK A01 T10011001  RH  100%=      5-min Rain = 0
KSW1 080736Z 03014KT M00/M00 A3023 RMK A01 T10011001  RH  100%=      5-min Rain = 0
KSW1 080737Z 02015KT M00/M00 A3023 RMK A01 T10011001  RH  100%=      5-min Rain = 0.01
KSW1 080738Z 02011KT M00/M00 A3023 RMK A01 T10011001  RH  100%=      5-min Rain = 0
KSW1 080739Z 03011KT M00/M00 A3023 RMK A01 T10011001  RH  100%=      5-min Rain = 0
KSW1 080740Z 03012KT M00/M00 A3023 RMK A01 T10011001  RH  100%=      5-min Rain = 0
KSW1 080741Z 03012KT M00/M00 A3023 RMK A01 T10011001  RH  100%=      5-min Rain = 0
KSW1 080742Z 03012KT M00/M00 A3022 RMK A01 T10011001  RH  100%=      5-min Rain = 0.01
KSW1 080743Z 03011KT M00/M00 A3022 RMK A01 T10011001  RH  100%=      5-min Rain = 0
KSW1 080744Z 03012G17KT M00/M00 A3022 RMK A01 T10011001  RH  100%=      5-min Rain = 0
KSW1 080745Z 03015KT M00/M00 A3022 RMK A01 T10011001  RH  100%=      5-min Rain = 0
KSW1 080746Z 03015KT M00/M00 A3022 RMK A01 T10011001  RH  100%=      5-min Rain = 0
KSW1 080747Z 03016KT M00/M00 A3022 RMK A01 T10011001  RH  100%=      5-min Rain = 0
KSW1 080748Z 03013KT M00/M00 A3022 RMK A01 T10011001  RH  100%=      5-min Rain = 0
KSW1 080749Z 03015KT M00/M00 A3022 RMK A01 T10011001  RH  100%=      5-min Rain = 0.01
KSW1 080750Z 03014KT M00/M00 A3022 RMK A01 T10011001  RH  100%=      5-min Rain = 0
KSW1 080751Z 03015KT M00/M00 A3022 RMK A01 T10011001  RH  100%=      5-min Rain = 0
KSW1 080752Z 03016KT M00/M00 A3022 RMK A01 T10011001  RH  100%=      5-min Rain = 0
KSW1 080753Z 02014KT M00/M00 A3022 RMK A01 T10011001  RH  100%=      5-min Rain = 0
KSW1 080754Z 02016KT M00/M00 A3022 RMK A01 T10011001  RH  100%=      5-min Rain = 0
KSW1 080755Z 02013KT M00/M00 A3022 RMK A01 T10011001  RH  100%=      5-min Rain = 0
KSW1 080756Z 03014KT M00/M00 A3022 RMK A01 T10011001  RH  100%=      5-min Rain = 0
KSW1 080757Z 03013KT M00/M00 A3022 RMK A01 T10011001  RH  100%=      5-min Rain = 0
KSW1 080758Z 03014KT M00/M00 A3022 RMK A01 T10011001  RH  100%=      5-min Rain = 0
KSW1 080759Z 03017KT M00/M00 A3022 RMK A01 T10011001  RH  100%=      5-min Rain = 0
KSW1 080800Z 03015G20KT M00/M00 A3021 RMK A01 T10011001  RH  100%=      5-min Rain = 0
KSW1 080801Z 03017G22KT M00/M00 A3021 RMK A01 T10021002  RH  100%=      5-min Rain = 0
KSW1 080802Z 03016G21KT M00/M00 A3021 RMK A01 T10011002  RH  100%=      5-min Rain = 0
KSW1 080803Z 03014KT M00/M00 A3021 RMK A01 T10021002  RH  100%=      5-min Rain = 0.01
KSW1 080804Z 03015KT M00/M00 A3021 RMK A01 T10021002  RH  100%=      5-min Rain = 0
KSW1 080805Z 03014KT M00/M00 A3021 RMK A01 T10021002  RH  100%=      5-min Rain = 0
KSW1 080806Z 04017KT M00/M00 A3021 RMK A01 T10021002  RH  100%=      5-min Rain = 0
KSW1 080807Z 03017KT M00/M00 A3021 RMK A01 T10021002  RH  100%=      5-min Rain = 0
KSW1 080808Z 03013KT M00/M00 A3021 RMK A01 T10021002  RH  100%=      5-min Rain = 0
KSW1 080809Z 03012KT M00/M00 A3021 RMK A01 T10021002  RH  100%=      5-min Rain = 0
KSW1 080810Z 03013KT M00/M00 A3021 RMK A01 T10011001  RH  100%=      5-min Rain = 0
KSW1 080811Z 03016KT M00/M00 A3021 RMK A01 T10011001  RH  100%=      5-min Rain = 0
KSW1 080812Z 03013KT M00/M00 A3021 RMK A01 T10011001  RH  100%=      5-min Rain = 0.01
KSW1 080813Z 03016KT M00/M00 A3021 RMK A01 T10011001  RH  100%=      5-min Rain = 0
KSW1 080814Z 03017KT M00/M00 A3021 RMK A01 T10011001  RH  100%=      5-min Rain = 0
KSW1 080815Z 03015KT M00/M00 A3021 RMK A01 T10021002  RH  100%=      5-min Rain = 0
KSW1 080816Z 03014KT M00/M00 A3021 RMK A01 T10021002  RH  100%=      5-min Rain = 0
KSW1 080817Z 03015KT M00/M00 A3021 RMK A01 T10021002  RH  100%=      5-min Rain = 0
KSW1 080818Z 03016KT M00/M00 A3021 RMK A01 T10021002  RH  100%=      5-min Rain = 0
KSW1 080819Z 03016KT M00/M00 A3021 RMK A01 T10021002  RH  100%=      5-min Rain = 0
KSW1 080820Z 03015KT M00/M00 A3021 RMK A01 T10021002  RH  100%=      5-min Rain = 0.01
KSW1 080821Z 03014KT M00/M00 A3021 RMK A01 T10021002  RH  100%=      5-min Rain = 0
KSW1 080822Z 03012KT M00/M00 A3021 RMK A01 T10021002  RH  100%=      5-min Rain = 0
KSW1 080823Z 03012KT M00/M00 A3021 RMK A01 T10011002  RH  100%=      5-min Rain = 0
KSW1 080824Z 03015KT M00/M00 A3021 RMK A01 T10011001  RH  100%=      5-min Rain = 0
KSW1 080825Z 03014KT M00/M00 A3021 RMK A01 T10011001  RH  100%=      5-min Rain = 0
KSW1 080826Z 03014KT M00/M00 A3021 RMK A01 T10011001  RH  100%=      5-min Rain = 0
KSW1 080827Z 03015KT M00/M00 A3021 RMK A01 T10011001  RH  100%=      5-min Rain = 0
KSW1 080828Z 03015KT M00/M00 A3021 RMK A01 T10011001  RH  100%=      5-min Rain = 0.01
KSW1 080829Z 03014KT M00/M00 A3021 RMK A01 T10011001  RH  100%=      5-min Rain = 0
KSW1 080830Z 02017KT M00/M00 A3021 RMK A01 T10011001  RH  100%=      5-min Rain = 0
KSW1 080831Z 02014G19KT M00/M00 A3021 RMK A01 T10021002  RH  100%=      5-min Rain = 0
KSW1 080832Z 03014G19KT M00/M00 A3021 RMK A01 T10021002  RH  100%=      5-min Rain = 0
KSW1 080833Z 03014KT M00/M00 A3021 RMK A01 T10021002  RH  100%=      5-min Rain = 0
KSW1 080834Z 03013KT M00/M00 A3021 RMK A01 T10021002  RH  100%=      5-min Rain = 0
KSW1 080835Z 03014KT M00/M00 A3021 RMK A01 T10021002  RH  100%=      5-min Rain = 0
KSW1 080836Z 03015KT M00/M00 A3021 RMK A01 T10021002  RH  100%=      5-min Rain = 0
KSW1 080837Z 02017G22KT M00/M00 A3021 RMK A01 T10021002  RH  100%=      5-min Rain = 0.01
KSW1 080838Z 03015KT M00/M00 A3021 RMK A01 T10031003  RH  100%=      5-min Rain = 0
KSW1 080839Z 03015KT M00/M00 A302 RMK A01 T10021003  RH  100%=      5-min Rain = 0
KSW1 080840Z 03016KT M00/M00 A302 RMK A01 T10031003  RH  100%=      5-min Rain = 0
KSW1 080841Z 03017KT M00/M00 A302 RMK A01 T10031003  RH  100%=      5-min Rain = 0
KSW1 080842Z 03014KT M00/M00 A3021 RMK A01 T10031003  RH  100%=      5-min Rain = 0
KSW1 080843Z 03017G22KT M00/M00 A3021 RMK A01 T10031003  RH  100%=      5-min Rain = 0
KSW1 080844Z 03017KT M00/M00 A3021 RMK A01 T10031003  RH  100%=      5-min Rain = 0
KSW1 080845Z 04016KT M00/M00 A3021 RMK A01 T10031003  RH  100%=      5-min Rain = 0
KSW1 080846Z 03015KT M00/M00 A302 RMK A01 T10031003  RH  100%=      5-min Rain = 0
KSW1 080847Z 03018KT M00/M00 A302 RMK A01 T10031003  RH  100%=      5-min Rain = 0
KSW1 080848Z 03017KT M00/M00 A3021 RMK A01 T10031003  RH  100%=      5-min Rain = 0.01
KSW1 080849Z 03015KT M00/M00 A3021 RMK A01 T10031004  RH  100%=      5-min Rain = 0
KSW1 080850Z 03015KT M00/M00 A3021 RMK A01 T10041004  RH  100%=      5-min Rain = 0
KSW1 080851Z 03018KT M00/M00 A3021 RMK A01 T10031004  RH  100%=      5-min Rain = 0
KSW1 080852Z 03016KT M00/M00 A3021 RMK A01 T10041004  RH  100%=      5-min Rain = 0
KSW1 080853Z 02017G23KT M00/M00 A3021 RMK A01 T10031003  RH  100%=      5-min Rain = 0
KSW1 080854Z 03014G19KT M00/M00 A3021 RMK A01 T10041004  RH  100%=      5-min Rain = 0
KSW1 080855Z 03016KT M00/M00 A3021 RMK A01 T10041004  RH  100%=      5-min Rain = 0
KSW1 080856Z 03015KT M00/M00 A3021 RMK A01 T10031004  RH  100%=      5-min Rain = 0
KSW1 080857Z 03016G21KT M00/M00 A3021 RMK A01 T10031004  RH  100%=      5-min Rain = 0
KSW1 080858Z 03018KT M00/M00 A3021 RMK A01 T10031004  RH  100%=      5-min Rain = 0
KSW1 080859Z 02017KT M00/M00 A3021 RMK A01 T10041004  RH  100%=      5-min Rain = 0
KSW1 080900Z 02015KT M00/M00 A3021 RMK A01 T10031003  RH  100%=      5-min Rain = 0
KSW1 080901Z 03015KT M00/M00 A3021 RMK A01 T10041004  RH  100%=      5-min Rain = 0
KSW1 080902Z 02015KT M00/M00 A3021 RMK A01 T10031003  RH  100%=      5-min Rain = 0
KSW1 080903Z 02014KT M00/M00 A3021 RMK A01 T10041004  RH  100%=      5-min Rain = 0
KSW1 080904Z 02014KT M00/M00 A3021 RMK A01 T10031003  RH  100%=      5-min Rain = 0
KSW1 080905Z 02013KT M00/M00 A3021 RMK A01 T10031003  RH  100%=      5-min Rain = 0
KSW1 080906Z 02016KT M00/M00 A3021 RMK A01 T10031003  RH  100%=      5-min Rain = 0
KSW1 080907Z 02014KT M00/M00 A3021 RMK A01 T10031003  RH  100%=      5-min Rain = 0
KSW1 080908Z 02017KT M00/M00 A3021 RMK A01 T10031003  RH  100%=      5-min Rain = 0
KSW1 080909Z 03014KT M00/M00 A3021 RMK A01 T10031003  RH  100%=      5-min Rain = 0
KSW1 080910Z 02013KT M00/M00 A3021 RMK A01 T10031003  RH  100%=      5-min Rain = 0
KSW1 080911Z 02011KT M00/M00 A3021 RMK A01 T10031003  RH  100%=      5-min Rain = 0
KSW1 080912Z 02010KT M00/M00 A3021 RMK A01 T10031003  RH  100%=      5-min Rain = 0
KSW1 080913Z 02013G18KT M00/M00 A3021 RMK A01 T10031003  RH  100%=      5-min Rain = 0
KSW1 080914Z 02014KT M00/M00 A3021 RMK A01 T10031003  RH  100%=      5-min Rain = 0
KSW1 080915Z 02014KT M00/M00 A3021 RMK A01 T10031003  RH  100%=      5-min Rain = 0
KSW1 080916Z 02016KT M00/M00 A3021 RMK A01 T10031003  RH  100%=      5-min Rain = 0
KSW1 080917Z 02019KT M00/M00 A3021 RMK A01 T10041004  RH  100%=      5-min Rain = 0
KSW1 080918Z 02015KT M00/M00 A3021 RMK A01 T10041004  RH  100%=      5-min Rain = 0
KSW1 080919Z 02014KT M00/M00 A3021 RMK A01 T10041004  RH  100%=      5-min Rain = 0
KSW1 080920Z 02015G20KT M00/M00 A3021 RMK A01 T10041004  RH  100%=      5-min Rain = 0
KSW1 080921Z 03016KT M00/M00 A3021 RMK A01 T10041004  RH  100%=      5-min Rain = 0
KSW1 080922Z 02013KT M00/M00 A3021 RMK A01 T10041004  RH  100%=      5-min Rain = 0
KSW1 080923Z 03012KT M00/M00 A302 RMK A01 T10041004  RH  100%=      5-min Rain = 0
KSW1 080924Z 03013KT M00/M00 A302 RMK A01 T10041004  RH  100%=      5-min Rain = 0
KSW1 080925Z 03014G22KT M00/M00 A302 RMK A01 T10041004  RH  100%=      5-min Rain = 0
KSW1 080926Z 03016KT M00/M00 A3021 RMK A01 T10041004  RH  100%=      5-min Rain = 0
KSW1 080927Z 02013KT M00/M00 A302 RMK A01 T10041004  RH  100%=      5-min Rain = 0
KSW1 080928Z 02016KT M00/M00 A302 RMK A01 T10041004  RH  100%=      5-min Rain = 0
KSW1 080929Z 03012G17KT M00/M00 A3021 RMK A01 T10041004  RH  100%=      5-min Rain = 0
KSW1 080930Z 03011KT M00/M00 A3021 RMK A01 T10041004  RH  100%=      5-min Rain = 0
KSW1 080931Z 02015KT M00/M00 A3021 RMK A01 T10041004  RH  100%=      5-min Rain = 0
KSW1 080932Z 02014KT M00/M00 A3021 RMK A01 T10041004  RH  100%=      5-min Rain = 0
KSW1 080933Z 02013KT M00/M00 A3021 RMK A01 T10041004  RH  100%=      5-min Rain = 0
KSW1 080934Z 03013G19KT M00/M00 A3021 RMK A01 T10041004  RH  100%=      5-min Rain = 0
KSW1 080935Z 02014KT M00/M00 A3021 RMK A01 T10041004  RH  100%=      5-min Rain = 0
KSW1 080936Z 02015KT M00/M00 A3021 RMK A01 T10041004  RH  100%=      5-min Rain = 0
KSW1 080937Z 02015KT M00/M00 A3021 RMK A01 T10041004  RH  100%=      5-min Rain = 0
KSW1 080938Z 02013KT M00/M01 A3021 RMK A01 T10041005  RH  100%=      5-min Rain = 0
KSW1 080939Z 02014KT M00/M00 A3021 RMK A01 T10041004  RH  100%=      5-min Rain = 0
KSW1 080940Z 02016KT M00/M01 A3021 RMK A01 T10041005  RH  100%=      5-min Rain = 0
KSW1 080941Z 02014KT M01/M01 A3021 RMK A01 T10051005  RH  100%=      5-min Rain = 0
KSW1 080942Z 03014KT M01/M01 A3021 RMK A01 T10051005  RH  100%=      5-min Rain = 0
KSW1 080943Z 02013KT M00/M00 A3021 RMK A01 T10041004  RH  100%=      5-min Rain = 0
KSW1 080944Z 02012KT M00/M00 A3021 RMK A01 T10041004  RH  100%=      5-min Rain = 0
KSW1 080945Z 02012KT M00/M01 A3021 RMK A01 T10041005  RH  100%=      5-min Rain = 0
KSW1 080946Z 02013G18KT M00/M01 A3021 RMK A01 T10041005  RH  100%=      5-min Rain = 0
KSW1 080947Z 02016KT M00/M01 A3021 RMK A01 T10041005  RH  100%=      5-min Rain = 0
KSW1 080948Z 02013KT M00/M00 A3021 RMK A01 T10041004  RH  100%=      5-min Rain = 0
KSW1 080949Z 02011KT M01/M01 A3021 RMK A01 T10051005  RH  100%=      5-min Rain = 0
KSW1 080950Z 03012KT M00/M01 A3021 RMK A01 T10041005  RH  100%=      5-min Rain = 0
KSW1 080951Z 02012KT M00/M01 A3021 RMK A01 T10041005  RH  100%=      5-min Rain = 0
KSW1 080952Z 01012KT M01/M01 A3021 RMK A01 T10051005  RH  100%=      5-min Rain = 0
KSW1 080953Z 02014KT M00/M01 A3021 RMK A01 T10041005  RH  100%=      5-min Rain = 0
KSW1 080954Z 01011KT M00/M01 A3021 RMK A01 T10041005  RH  100%=      5-min Rain = 0
KSW1 080955Z 01012KT M00/M01 A3021 RMK A01 T10041005  RH  100%=      5-min Rain = 0.01
KSW1 080956Z 02011KT M00/M00 A3021 RMK A01 T10041004  RH  100%=      5-min Rain = 0
KSW1 080957Z 02013KT M01/M01 A3021 RMK A01 T10051005  RH  100%=      5-min Rain = 0
KSW1 080958Z 02015G20KT M00/M00 A3021 RMK A01 T10041004  RH  100%=      5-min Rain = 0
KSW1 080959Z 02016KT M00/M01 A3021 RMK A01 T10041005  RH  100%=      5-min Rain = 0
KSW1 081000Z 02016KT M00/M01 A3021 RMK A01 T10041005  RH  100%=      5-min Rain = 0.01
KSW1 081001Z 02012KT M00/M01 A3021 RMK A01 T10041005  RH  100%=      5-min Rain = 0
KSW1 081002Z 02012G17KT M00/M00 A3021 RMK A01 T10041004  RH  100%=      5-min Rain = 0
KSW1 081003Z 02014KT M00/M01 A3021 RMK A01 T10041005  RH  100%=      5-min Rain = 0
KSW1 081004Z 02015KT M00/M00 A3021 RMK A01 T10041004  RH  100%=      5-min Rain = 0
KSW1 081005Z 02016KT M00/M01 A3021 RMK A01 T10041005  RH  100%=      5-min Rain = 0.01
KSW1 081006Z 02014KT M00/M00 A3021 RMK A01 T10041004  RH  100%=      5-min Rain = 0
KSW1 081007Z 02016KT M00/M01 A3021 RMK A01 T10041005  RH  100%=      5-min Rain = 0
KSW1 081008Z 03013KT M00/M01 A3021 RMK A01 T10041005  RH  100%=      5-min Rain = 0
KSW1 081009Z 03014KT M00/M00 A3021 RMK A01 T10041004  RH  100%=      5-min Rain = 0
KSW1 081010Z 02014KT M00/M00 A3021 RMK A01 T10041004  RH  100%=      5-min Rain = 0
KSW1 081011Z 02012KT M01/M01 A3021 RMK A01 T10051005  RH  100%=      5-min Rain = 0
KSW1 081012Z 02010KT M00/M00 A3021 RMK A01 T10041004  RH  100%=      5-min Rain = 0.01
KSW1 081013Z 02011KT M00/M00 A3021 RMK A01 T10041004  RH  100%=      5-min Rain = 0
KSW1 081014Z 02013KT M00/M00 A3021 RMK A01 T10041004  RH  100%=      5-min Rain = 0
KSW1 081015Z 02012KT M00/M00 A3021 RMK A01 T10041004  RH  100%=      5-min Rain = 0
KSW1 081016Z 02011KT M00/M00 A3021 RMK A01 T10041004  RH  100%=      5-min Rain = 0
KSW1 081017Z 02009KT M00/M00 A3021 RMK A01 T10041004  RH  100%=      5-min Rain = 0
KSW1 081018Z 02010KT M00/M00 A3021 RMK A01 T10041004  RH  100%=      5-min Rain = 0
KSW1 081019Z 03011KT M00/M00 A3021 RMK A01 T10031004  RH  100%=      5-min Rain = 0.01
KSW1 081020Z 02011KT M00/M00 A3021 RMK A01 T10041004  RH  100%=      5-min Rain = 0
KSW1 081021Z 02010KT M00/M00 A3021 RMK A01 T10041004  RH  100%=      5-min Rain = 0
KSW1 081022Z 02013KT M00/M00 A3021 RMK A01 T10041004  RH  100%=      5-min Rain = 0
KSW1 081023Z 02013KT M00/M00 A3021 RMK A01 T10041004  RH  100%=      5-min Rain = 0
KSW1 081024Z 02014KT M00/M00 A3021 RMK A01 T10041004  RH  100%=      5-min Rain = 0.01
KSW1 081025Z 02014KT M00/M00 A3021 RMK A01 T10031004  RH  100%=      5-min Rain = 0
KSW1 081026Z 02013KT M00/M00 A3021 RMK A01 T10031004  RH  100%=      5-min Rain = 0
KSW1 081027Z 02013KT M00/M00 A3021 RMK A01 T10031004  RH  100%=      5-min Rain = 0
KSW1 081028Z 03012KT M00/M00 A3021 RMK A01 T10041004  RH  100%=      5-min Rain = 0
KSW1 081029Z 02012KT M00/M00 A3021 RMK A01 T10031003  RH  100%=      5-min Rain = 0
KSW1 081030Z 02011G16KT M00/M00 A3021 RMK A01 T10031004  RH  100%=      5-min Rain = 0.01
KSW1 081031Z 02011KT M00/M00 A3021 RMK A01 T10041004  RH  100%=      5-min Rain = 0
KSW1 081032Z 02010KT M00/M00 A3021 RMK A01 T10041004  RH  100%=      5-min Rain = 0
KSW1 081033Z 02013KT M00/M00 A3021 RMK A01 T10031004  RH  100%=      5-min Rain = 0
KSW1 081034Z 02013KT M00/M00 A3021 RMK A01 T10031004  RH  100%=      5-min Rain = 0
KSW1 081035Z 02011KT M00/M00 A3021 RMK A01 T10041004  RH  100%=      5-min Rain = 0.01
KSW1 081036Z 02008KT M00/M00 A3021 RMK A01 T10031004  RH  100%=      5-min Rain = 0
KSW1 081037Z 03009KT M00/M00 A3021 RMK A01 T10041004  RH  100%=      5-min Rain = 0
KSW1 081038Z 02009KT M00/M00 A3021 RMK A01 T10031004  RH  100%=      5-min Rain = 0
KSW1 081039Z 02011KT M00/M00 A3021 RMK A01 T10031003  RH  100%=      5-min Rain = 0
KSW1 081040Z 02008KT M00/M00 A3021 RMK A01 T10031003  RH  100%=      5-min Rain = 0.01
KSW1 081041Z 02010G15KT M00/M00 A3021 RMK A01 T10031003  RH  100%=      5-min Rain = 0
KSW1 081042Z 02012KT M00/M00 A3021 RMK A01 T10031003  RH  100%=      5-min Rain = 0
KSW1 081043Z 02011KT M00/M00 A3021 RMK A01 T10031003  RH  100%=      5-min Rain = 0
KSW1 081044Z 02011KT M00/M00 A3021 RMK A01 T10031003  RH  100%=      5-min Rain = 0.01
KSW1 081045Z 02010KT M00/M00 A302 RMK A01 T10041004  RH  100%=      5-min Rain = 0
KSW1 081046Z 02008KT M00/M00 A302 RMK A01 T10041004  RH  100%=      5-min Rain = 0
KSW1 081047Z 02010KT M00/M00 A302 RMK A01 T10041004  RH  100%=      5-min Rain = 0
KSW1 081048Z 02014KT M00/M00 A302 RMK A01 T10031004  RH  100%=      5-min Rain = 0.01
KSW1 081049Z 02011KT M00/M00 A302 RMK A01 T10041004  RH  100%=      5-min Rain = 0
KSW1 081050Z 02011KT M00/M00 A302 RMK A01 T10031004  RH  100%=      5-min Rain = 0
KSW1 081051Z 02010KT M00/M00 A3021 RMK A01 T10031003  RH  100%=      5-min Rain = 0.01
KSW1 081052Z 02010KT M00/M00 A3021 RMK A01 T10041004  RH  100%=      5-min Rain = 0
KSW1 081053Z 02011KT M00/M00 A3021 RMK A01 T10041004  RH  100%=      5-min Rain = 0
KSW1 081054Z 03009KT M00/M00 A3021 RMK A01 T10041004  RH  100%=      5-min Rain = 0
KSW1 081055Z 02008KT M00/M00 A3021 RMK A01 T10031004  RH  100%=      5-min Rain = 0
KSW1 081056Z 02010KT M00/M00 A3021 RMK A01 T10041004  RH  100%=      5-min Rain = 0.01
KSW1 081057Z 02010KT M00/M00 A3021 RMK A01 T10031004  RH  100%=      5-min Rain = 0
KSW1 081058Z 02008KT M00/M00 A3021 RMK A01 T10041004  RH  100%=      5-min Rain = 0
KSW1 081059Z 02010KT M00/M00 A3021 RMK A01 T10031003  RH  100%=      5-min Rain = 0
KSW1 081100Z 01010KT M00/M00 A3021 RMK A01 T10041004  RH  100%=      5-min Rain = 0.01
KSW1 081101Z 01010KT M00/M00 A3021 RMK A01 T10041004  RH  100%=      5-min Rain = 0
KSW1 081102Z 02011KT M00/M00 A3021 RMK A01 T10041004  RH  100%=      5-min Rain = 0
KSW1 081103Z 02010KT M00/M00 A3021 RMK A01 T10041004  RH  100%=      5-min Rain = 0
KSW1 081104Z 02010KT M00/M00 A3021 RMK A01 T10031004  RH  100%=      5-min Rain = 0.01
KSW1 081105Z 02010KT M00/M00 A3021 RMK A01 T10041004  RH  100%=      5-min Rain = 0
KSW1 081106Z 02010KT M00/M00 A3021 RMK A01 T10041004  RH  100%=      5-min Rain = 0
KSW1 081107Z 02009KT M00/M00 A3021 RMK A01 T10041004  RH  100%=      5-min Rain = 0
KSW1 081108Z 02010KT M00/M00 A3021 RMK A01 T10031004  RH  100%=      5-min Rain = 0
KSW1 081109Z 02011KT M00/M00 A3021 RMK A01 T10041004  RH  100%=      5-min Rain = 0
KSW1 081110Z 02011KT M00/M00 A3021 RMK A01 T10041004  RH  100%=      5-min Rain = 0.01
KSW1 081111Z 02009KT M00/M00 A3021 RMK A01 T10041004  RH  100%=      5-min Rain = 0
KSW1 081112Z 02009KT M00/M00 A3021 RMK A01 T10031003  RH  100%=      5-min Rain = 0
KSW1 081113Z 02007KT M00/M00 A3021 RMK A01 T10031003  RH  100%=      5-min Rain = 0
KSW1 081114Z 02008KT M00/M00 A3021 RMK A01 T10031003  RH  100%=      5-min Rain = 0
KSW1 081115Z 02011KT M00/M00 A3021 RMK A01 T10031003  RH  100%=      5-min Rain = 0
KSW1 081116Z 02010KT M00/M00 A3021 RMK A01 T10031003  RH  100%=      5-min Rain = 0
KSW1 081117Z 02010KT M00/M00 A3021 RMK A01 T10031003  RH  100%=      5-min Rain = 0
KSW1 081118Z 02010KT M00/M00 A3021 RMK A01 T10031003  RH  100%=      5-min Rain = 0.01
KSW1 081119Z 01009KT M00/M00 A3021 RMK A01 T10031003  RH  100%=      5-min Rain = 0
KSW1 081120Z 02010KT M00/M00 A3021 RMK A01 T10031003  RH  100%=      5-min Rain = 0
KSW1 081121Z 02009KT M00/M00 A3021 RMK A01 T10031003  RH  100%=      5-min Rain = 0
KSW1 081122Z 02009KT M00/M00 A3021 RMK A01 T10031003  RH  100%=      5-min Rain = 0
KSW1 081123Z 02009KT M00/M00 A3021 RMK A01 T10031003  RH  100%=      5-min Rain = 0
KSW1 081124Z 01008KT M00/M00 A3021 RMK A01 T10031003  RH  100%=      5-min Rain = 0
KSW1 081125Z 01008KT M00/M00 A3021 RMK A01 T10031003  RH  100%=      5-min Rain = 0
KSW1 081126Z 02006KT M00/M00 A3021 RMK A01 T10031003  RH  100%=      5-min Rain = 0.01
KSW1 081127Z 01006KT M00/M00 A3021 RMK A01 T10031003  RH  100%=      5-min Rain = 0
KSW1 081128Z 01007KT M00/M00 A3021 RMK A01 T10031003  RH  100%=      5-min Rain = 0
KSW1 081129Z 01008KT M00/M00 A3022 RMK A01 T10031003  RH  100%=      5-min Rain = 0
KSW1 081130Z 01005KT M00/M00 A3022 RMK A01 T10031003  RH  100%=      5-min Rain = 0
KSW1 081131Z 02007KT M00/M00 A3022 RMK A01 T10031003  RH  100%=      5-min Rain = 0
KSW1 081132Z 02007KT M00/M00 A3022 RMK A01 T10031003  RH  100%=      5-min Rain = 0
KSW1 081133Z 02005KT M00/M00 A3022 RMK A01 T10031003  RH  100%=      5-min Rain = 0
KSW1 081134Z 01007KT M00/M00 A3022 RMK A01 T10031003  RH  100%=      5-min Rain = 0.01
KSW1 081135Z 02007KT M00/M00 A3022 RMK A01 T10031003  RH  100%=      5-min Rain = 0
KSW1 081136Z 02008KT M00/M00 A3022 RMK A01 T10031003  RH  100%=      5-min Rain = 0
KSW1 081137Z 02008KT M00/M00 A3022 RMK A01 T10031003  RH  100%=      5-min Rain = 0
KSW1 081138Z 02007KT M00/M00 A3022 RMK A01 T10031003  RH  100%=      5-min Rain = 0
KSW1 081139Z 02007KT M00/M00 A3022 RMK A01 T10031003  RH  100%=      5-min Rain = 0
KSW1 081140Z 01006KT M00/M00 A3022 RMK A01 T10031003  RH  100%=      5-min Rain = 0
KSW1 081141Z 02005KT M00/M00 A3022 RMK A01 T10031003  RH  100%=      5-min Rain = 0
KSW1 081142Z 02006KT M00/M00 A3022 RMK A01 T10031003  RH  100%=      5-min Rain = 0
KSW1 081143Z 02007KT M00/M00 A3022 RMK A01 T10031003  RH  100%=      5-min Rain = 0.01
KSW1 081144Z 02007KT M00/M00 A3022 RMK A01 T10031003  RH  100%=      5-min Rain = 0
KSW1 081145Z 02007KT M00/M00 A3022 RMK A01 T10031003  RH  100%=      5-min Rain = 0
KSW1 081146Z 02006KT M00/M00 A3022 RMK A01 T10031003  RH  100%=      5-min Rain = 0
KSW1 081147Z 02006KT M00/M00 A3022 RMK A01 T10031003  RH  100%=      5-min Rain = 0
KSW1 081148Z 03006KT M00/M00 A3022 RMK A01 T10031003  RH  100%=      5-min Rain = 0
KSW1 081149Z 02006KT M00/M00 A3022 RMK A01 T10031003  RH  100%=      5-min Rain = 0.01
KSW1 081150Z 02006KT M00/M00 A3022 RMK A01 T10031003  RH  100%=      5-min Rain = 0
KSW1 081151Z 02006KT M00/M00 A3022 RMK A01 T10031003  RH  100%=      5-min Rain = 0
KSW1 081152Z 02006KT M00/M00 A3022 RMK A01 T10031003  RH  100%=      5-min Rain = 0
KSW1 081153Z 02007KT M00/M00 A3022 RMK A01 T10031003  RH  100%=      5-min Rain = 0.01
KSW1 081154Z 02008KT M00/M00 A3022 RMK A01 T10031003  RH  100%=      5-min Rain = 0
KSW1 081155Z 02006KT M00/M00 A3022 RMK A01 T10031003  RH  100%=      5-min Rain = 0
KSW1 081156Z 02007KT M00/M00 A3022 RMK A01 T10031003  RH  100%=      5-min Rain = 0
KSW1 081157Z 02007KT M00/M00 A3022 RMK A01 T10031003  RH  100%=      5-min Rain = 0
KSW1 081158Z 03006KT M00/M00 A3022 RMK A01 T10031003  RH  100%=      5-min Rain = 0
KSW1 081159Z 02006KT M00/M00 A3022 RMK A01 T10031003  RH  100%=      5-min Rain = 0
KSW1 081200Z 02007KT M00/M00 A3022 RMK A01 T10031003  RH  100%=      5-min Rain = 0.01
KSW1 081201Z 02007KT M00/M00 A3022 RMK A01 T10031003  RH  100%=      5-min Rain = 0
KSW1 081202Z 02006KT M00/M00 A3022 RMK A01 T10031003  RH  100%=      5-min Rain = 0
KSW1 081203Z 02006KT M00/M00 A3022 RMK A01 T10031003  RH  100%=      5-min Rain = 0
KSW1 081204Z 02006KT M00/M00 A3022 RMK A01 T10031003  RH  100%=      5-min Rain = 0
KSW1 081205Z 02007KT M00/M00 A3022 RMK A01 T10031003  RH  100%=      5-min Rain = 0
KSW1 081206Z 02007KT M00/M00 A3023 RMK A01 T10031003  RH  100%=      5-min Rain = 0
KSW1 081207Z 03006KT M00/M00 A3023 RMK A01 T10031003  RH  100%=      5-min Rain = 0
KSW1 081208Z 02006KT M00/M00 A3023 RMK A01 T10031003  RH  100%=      5-min Rain = 0
KSW1 081209Z 02006KT M00/M00 A3023 RMK A01 T10031003  RH  100%=      5-min Rain = 0
KSW1 081210Z 02006KT M00/M00 A3023 RMK A01 T10031003  RH  100%=      5-min Rain = 0
KSW1 081211Z 02006KT M00/M00 A3023 RMK A01 T10031003  RH  100%=      5-min Rain = 0
KSW1 081212Z 02006KT M00/M00 A3022 RMK A01 T10031003  RH  100%=      5-min Rain = 0
KSW1 081213Z 02005KT M00/M00 A3023 RMK A01 T10031003  RH  100%=      5-min Rain = 0
KSW1 081214Z 02006KT M00/M00 A3022 RMK A01 T10031003  RH  100%=      5-min Rain = 0
KSW1 081215Z 02006KT M00/M00 A3022 RMK A01 T10031003  RH  100%=      5-min Rain = 0
KSW1 081216Z 02006KT M00/M00 A3022 RMK A01 T10031003  RH  100%=      5-min Rain = 0
KSW1 081217Z 03007KT M00/M00 A3023 RMK A01 T10031003  RH  100%=      5-min Rain = 0
KSW1 081218Z 03007KT M00/M00 A3023 RMK A01 T10031003  RH  100%=      5-min Rain = 0
KSW1 081219Z 02006KT M00/M00 A3023 RMK A01 T10031003  RH  100%=      5-min Rain = 0
KSW1 081220Z 03005KT M00/M00 A3023 RMK A01 T10031003  RH  100%=      5-min Rain = 0.01
KSW1 081221Z 03005KT M00/M00 A3023 RMK A01 T10031003  RH  100%=      5-min Rain = 0
KSW1 081222Z 03005KT M00/M00 A3023 RMK A01 T10031003  RH  100%=      5-min Rain = 0
KSW1 081223Z 02004KT M00/M00 A3023 RMK A01 T10031003  RH  100%=      5-min Rain = 0
KSW1 081224Z 02005KT M00/M00 A3023 RMK A01 T10031003  RH  100%=      5-min Rain = 0
KSW1 081225Z 02005KT M00/M00 A3023 RMK A01 T10031003  RH  100%=      5-min Rain = 0
KSW1 081226Z 02005KT M00/M00 A3023 RMK A01 T10031003  RH  100%=      5-min Rain = 0
KSW1 081227Z 02006KT M00/M00 A3023 RMK A01 T10031003  RH  100%=      5-min Rain = 0
KSW1 081228Z 02005KT M00/M00 A3023 RMK A01 T10031004  RH  100%=      5-min Rain = 0
KSW1 081229Z 02005KT M00/M00 A3023 RMK A01 T10031004  RH  100%=      5-min Rain = 0
KSW1 081230Z 02004KT M00/M00 A3023 RMK A01 T10031004  RH  100%=      5-min Rain = 0
KSW1 081231Z 02004KT M00/M00 A3023 RMK A01 T10041004  RH  100%=      5-min Rain = 0
KSW1 081232Z 02006KT M00/M00 A3023 RMK A01 T10031004  RH  100%=      5-min Rain = 0
KSW1 081233Z 02006KT M00/M00 A3023 RMK A01 T10041004  RH  100%=      5-min Rain = 0
KSW1 081234Z 02005KT M00/M00 A3023 RMK A01 T10041004  RH  100%=      5-min Rain = 0
KSW1 081235Z 01004KT M00/M00 A3023 RMK A01 T10041004  RH  100%=      5-min Rain = 0
KSW1 081236Z 02004KT M00/M00 A3023 RMK A01 T10041004  RH  100%=      5-min Rain = 0
KSW1 081237Z 02005KT M00/M00 A3023 RMK A01 T10031004  RH  100%=      5-min Rain = 0
KSW1 081238Z 03005KT M00/M00 A3024 RMK A01 T10041004  RH  100%=      5-min Rain = 0
KSW1 081239Z 02004KT M00/M00 A3024 RMK A01 T10031003  RH  100%=      5-min Rain = 0
KSW1 081240Z 02005KT M00/M00 A3024 RMK A01 T10031004  RH  100%=      5-min Rain = 0.01
KSW1 081241Z 02005KT M00/M00 A3024 RMK A01 T10031003  RH  100%=      5-min Rain = 0
KSW1 081242Z 02005KT M00/M00 A3024 RMK A01 T10041004  RH  100%=      5-min Rain = 0
KSW1 081243Z 02004KT M00/M00 A3024 RMK A01 T10041004  RH  100%=      5-min Rain = 0
KSW1 081244Z 02005KT M00/M00 A3024 RMK A01 T10041004  RH  100%=      5-min Rain = 0
KSW1 081245Z 02005KT M00/M00 A3024 RMK A01 T10041004  RH  100%=      5-min Rain = 0
KSW1 081246Z 01004KT M00/M00 A3024 RMK A01 T10041004  RH  100%=      5-min Rain = 0
KSW1 081247Z 02003KT M00/M00 A3024 RMK A01 T10031003  RH  100%=      5-min Rain = 0
KSW1 081248Z 02004KT M00/M00 A3024 RMK A01 T10031003  RH  100%=      5-min Rain = 0
KSW1 081249Z 02004KT M00/M00 A3024 RMK A01 T10031003  RH  100%=      5-min Rain = 0
KSW1 081250Z 03004KT M00/M00 A3024 RMK A01 T10031003  RH  100%=      5-min Rain = 0
KSW1 081251Z 02003KT M00/M00 A3024 RMK A01 T10031003  RH  100%=      5-min Rain = 0
KSW1 081252Z 02003KT M00/M00 A3024 RMK A01 T10031003  RH  100%=      5-min Rain = 0
KSW1 081253Z 02004KT M00/M00 A3024 RMK A01 T10031003  RH  100%=      5-min Rain = 0
KSW1 081254Z 03005KT M00/M00 A3024 RMK A01 T10031003  RH  100%=      5-min Rain = 0
KSW1 081255Z 02004KT M00/M00 A3024 RMK A01 T10031003  RH  100%=      5-min Rain = 0
KSW1 081256Z 01004KT M00/M00 A3024 RMK A01 T10031003  RH  100%=      5-min Rain = 0
KSW1 081257Z 02005KT M00/M00 A3024 RMK A01 T10031003  RH  100%=      5-min Rain = 0
KSW1 081258Z 02004KT M00/M00 A3024 RMK A01 T10031003  RH  100%=      5-min Rain = 0
KSW1 081259Z 02005KT M00/M00 A3024 RMK A01 T10031003  RH  100%=      5-min Rain = 0
KSW1 081300Z 02005KT M00/M00 A3024 RMK A01 T10031003  RH  100%=      5-min Rain = 0
KSW1 081301Z 02004KT M00/M00 A3024 RMK A01 T10031003  RH  100%=      5-min Rain = 0
KSW1 081302Z 02005KT M00/M00 A3024 RMK A01 T10031003  RH  100%=      5-min Rain = 0
KSW1 081303Z 01004KT M00/M00 A3024 RMK A01 T10031003  RH  100%=      5-min Rain = 0
KSW1 081304Z 02004KT M00/M00 A3024 RMK A01 T10031003  RH  100%=      5-min Rain = 0
KSW1 081305Z 02004KT M00/M00 A3024 RMK A01 T10031003  RH  100%=      5-min Rain = 0.01
KSW1 081306Z 02004KT M00/M00 A3024 RMK A01 T10031003  RH  100%=      5-min Rain = 0
KSW1 081307Z 02005KT M00/M00 A3024 RMK A01 T10031003  RH  100%=      5-min Rain = 0
KSW1 081308Z 03004KT M00/M00 A3024 RMK A01 T10031003  RH  100%=      5-min Rain = 0
KSW1 081309Z 03004KT M00/M00 A3025 RMK A01 T10031003  RH  100%=      5-min Rain = 0
KSW1 081310Z 02004KT M00/M00 A3025 RMK A01 T10031003  RH  100%=      5-min Rain = 0
KSW1 081311Z 02003KT M00/M00 A3025 RMK A01 T10031003  RH  100%=      5-min Rain = 0
KSW1 081312Z 02003KT M00/M00 A3025 RMK A01 T10031003  RH  100%=      5-min Rain = 0
KSW1 081313Z 02003KT M00/M00 A3025 RMK A01 T10031003  RH  100%=      5-min Rain = 0
KSW1 081314Z 02003KT M00/M00 A3025 RMK A01 T10021002  RH  100%=      5-min Rain = 0
KSW1 081315Z 02003KT M00/M00 A3025 RMK A01 T10021002  RH  100%=      5-min Rain = 0
KSW1 081316Z 02004KT M00/M00 A3025 RMK A01 T10021002  RH  100%=      5-min Rain = 0
KSW1 081317Z 01003KT M00/M00 A3025 RMK A01 T10021002  RH  100%=      5-min Rain = 0
KSW1 081318Z 02004KT M00/M00 A3025 RMK A01 T10021002  RH  100%=      5-min Rain = 0
KSW1 081319Z 02004KT M00/M00 A3025 RMK A01 T10021002  RH  100%=      5-min Rain = 0
KSW1 081320Z 01003KT M00/M00 A3025 RMK A01 T10031003  RH  100%=      5-min Rain = 0
KSW1 081321Z 01003KT M00/M00 A3025 RMK A01 T10031003  RH  100%=      5-min Rain = 0.01
KSW1 081322Z 01003KT M00/M00 A3025 RMK A01 T10031003  RH  100%=      5-min Rain = 0
KSW1 081323Z 01003KT M00/M00 A3025 RMK A01 T10031003  RH  100%=      5-min Rain = 0
KSW1 081324Z 01003KT M00/M00 A3025 RMK A01 T10031003  RH  100%=      5-min Rain = 0
KSW1 081325Z 00004KT M00/M00 A3025 RMK A01 T10031003  RH  100%=      5-min Rain = 0
KSW1 081326Z 01003KT M00/M00 A3025 RMK A01 T10031003  RH  100%=      5-min Rain = 0.01
KSW1 081327Z 01003KT M00/M00 A3025 RMK A01 T10021003  RH  100%=      5-min Rain = 0
KSW1 081328Z 00003KT M00/M00 A3025 RMK A01 T10021002  RH  100%=      5-min Rain = 0
KSW1 081329Z 01004KT M00/M00 A3026 RMK A01 T10021003  RH  100%=      5-min Rain = 0.01
KSW1 081330Z 01004KT M00/M00 A3025 RMK A01 T10031003  RH  100%=      5-min Rain = 0
KSW1 081331Z 01004KT M00/M00 A3026 RMK A01 T10031003  RH  100%=      5-min Rain = 0
KSW1 081332Z 01004KT M00/M00 A3026 RMK A01 T10031003  RH  100%=      5-min Rain = 0
KSW1 081333Z 01004KT M00/M00 A3026 RMK A01 T10031003  RH  100%=      5-min Rain = 0.01
KSW1 081334Z 02004KT M00/M00 A3026 RMK A01 T10031003  RH  100%=      5-min Rain = 0
KSW1 081335Z 01004KT M00/M00 A3026 RMK A01 T10031003  RH  100%=      5-min Rain = 0
KSW1 081336Z 02004KT M00/M00 A3026 RMK A01 T10031003  RH  100%=      5-min Rain = 0
KSW1 081337Z 01004KT M00/M00 A3026 RMK A01 T10021002  RH  100%=      5-min Rain = 0
KSW1 081338Z 01004KT M00/M00 A3026 RMK A01 T10031003  RH  100%=      5-min Rain = 0
KSW1 081339Z 01004KT M00/M00 A3026 RMK A01 T10031003  RH  100%=      5-min Rain = 0
KSW1 081340Z 01003KT M00/M00 A3026 RMK A01 T10031003  RH  100%=      5-min Rain = 0.01
KSW1 081341Z 01003KT M00/M00 A3026 RMK A01 T10031003  RH  100%=      5-min Rain = 0
KSW1 081342Z 02003KT M00/M00 A3026 RMK A01 T10021002  RH  100%=      5-min Rain = 0
KSW1 081343Z 01003KT M00/M00 A3026 RMK A01 T10021002  RH  100%=      5-min Rain = 0
KSW1 081344Z 01005KT M00/M00 A3026 RMK A01 T10021003  RH  100%=      5-min Rain = 0
KSW1 081345Z 01004KT M00/M00 A3026 RMK A01 T10021002  RH  100%=      5-min Rain = 0
KSW1 081346Z 01004KT M00/M00 A3026 RMK A01 T10021002  RH  100%=      5-min Rain = 0
KSW1 081347Z 01005KT M00/M00 A3026 RMK A01 T10021002  RH  100%=      5-min Rain = 0
KSW1 081348Z 01005KT M00/M00 A3026 RMK A01 T10021003  RH  100%=      5-min Rain = 0
KSW1 081349Z 01005KT M00/M00 A3026 RMK A01 T10021003  RH  100%=      5-min Rain = 0
KSW1 081350Z 01005KT M00/M00 A3026 RMK A01 T10031003  RH  100%=      5-min Rain = 0
KSW1 081351Z 01004KT M00/M00 A3026 RMK A01 T10031003  RH  100%=      5-min Rain = 0
KSW1 081352Z 01004KT M00/M00 A3026 RMK A01 T10031003  RH  100%=      5-min Rain = 0
KSW1 081353Z 01004KT M00/M00 A3026 RMK A01 T10031003  RH  100%=      5-min Rain = 0
KSW1 081354Z 01005KT M00/M00 A3026 RMK A01 T10031003  RH  100%=      5-min Rain = 0
KSW1 081355Z 01004KT M00/M00 A3026 RMK A01 T10031003  RH  100%=      5-min Rain = 0
KSW1 081356Z 01005KT M00/M00 A3026 RMK A01 T10031003  RH  100%=      5-min Rain = 0
KSW1 081357Z 01005KT M00/M00 A3027 RMK A01 T10041004  RH  100%=      5-min Rain = 0
KSW1 081358Z 01006KT M00/M00 A3027 RMK A01 T10041004  RH  100%=      5-min Rain = 0
KSW1 081359Z 01005KT M00/M00 A3027 RMK A01 T10041004  RH  100%=      5-min Rain = 0
KSW1 081400Z 01005KT M00/M00 A3027 RMK A01 T10041004  RH  100%=      5-min Rain = 0
KSW1 081401Z 01005KT M00/M00 A3027 RMK A01 T10041004  RH  100%=      5-min Rain = 0
KSW1 081402Z 01004KT M00/M00 A3027 RMK A01 T10041004  RH  100%=      5-min Rain = 0.01
KSW1 081403Z 01005KT M00/M00 A3027 RMK A01 T10041004  RH  100%=      5-min Rain = 0
KSW1 081404Z 01005KT M00/M00 A3027 RMK A01 T10041004  RH  100%=      5-min Rain = 0
KSW1 081405Z 02004KT M00/M00 A3027 RMK A01 T10041004  RH  100%=      5-min Rain = 0
KSW1 081406Z 01004KT M00/M00 A3027 RMK A01 T10041004  RH  100%=      5-min Rain = 0
KSW1 081407Z 01004KT M00/M00 A3027 RMK A01 T10041004  RH  100%=      5-min Rain = 0
KSW1 081408Z 01004KT M00/M00 A3027 RMK A01 T10041004  RH  100%=      5-min Rain = 0
KSW1 081409Z 02003KT M00/M01 A3027 RMK A01 T10041005  RH  100%=      5-min Rain = 0
KSW1 081410Z 01004KT M00/M00 A3027 RMK A01 T10041004  RH  100%=      5-min Rain = 0
KSW1 081411Z 01004KT M00/M00 A3027 RMK A01 T10041004  RH  100%=      5-min Rain = 0
KSW1 081412Z 01004KT M00/M01 A3027 RMK A01 T10041005  RH  100%=      5-min Rain = 0
KSW1 081413Z 01003KT M01/M01 A3027 RMK A01 T10051005  RH  100%=      5-min Rain = 0
KSW1 081414Z 01004KT M01/M01 A3027 RMK A01 T10051005  RH  100%=      5-min Rain = 0
KSW1 081415Z 01004KT M01/M01 A3027 RMK A01 T10051005  RH  100%=      5-min Rain = 0
KSW1 081416Z 02003KT M01/M01 A3027 RMK A01 T10051005  RH  100%=      5-min Rain = 0
KSW1 081417Z 01005KT M01/M01 A3027 RMK A01 T10051005  RH  100%=      5-min Rain = 0
KSW1 081418Z 02004KT M01/M01 A3027 RMK A01 T10051005  RH  100%=      5-min Rain = 0
KSW1 081419Z 02005KT M01/M01 A3027 RMK A01 T10061006  RH  100%=      5-min Rain = 0
KSW1 081420Z 02004KT M01/M01 A3027 RMK A01 T10061006  RH  100%=      5-min Rain = 0
KSW1 081421Z 01005KT M01/M01 A3027 RMK A01 T10061006  RH  100%=      5-min Rain = 0
KSW1 081422Z 02004KT M01/M01 A3027 RMK A01 T10061006  RH  100%=      5-min Rain = 0
KSW1 081423Z 02004KT M01/M01 A3027 RMK A01 T10061006  RH  100%=      5-min Rain = 0
KSW1 081424Z 02005KT M01/M01 A3027 RMK A01 T10061006  RH  100%=      5-min Rain = 0
KSW1 081425Z 02005KT M01/M01 A3027 RMK A01 T10061006  RH  100%=      5-min Rain = 0
KSW1 081426Z 01004KT M01/M01 A3027 RMK A01 T10061006  RH  100%=      5-min Rain = 0
KSW1 081427Z 02004KT M01/M01 A3027 RMK A01 T10061006  RH  100%=      5-min Rain = 0
KSW1 081428Z 01004KT M01/M01 A3027 RMK A01 T10061006  RH  100%=      5-min Rain = 0
KSW1 081429Z 02004KT M01/M01 A3027 RMK A01 T10061007  RH  100%=      5-min Rain = 0
KSW1 081430Z 01004KT M01/M01 A3027 RMK A01 T10061006  RH  100%=      5-min Rain = 0
KSW1 081431Z 01004KT M01/M01 A3027 RMK A01 T10061006  RH  100%=      5-min Rain = 0
KSW1 081432Z 01004KT M01/M01 A3027 RMK A01 T10071007  RH  100%=      5-min Rain = 0
KSW1 081433Z 01004KT M01/M01 A3027 RMK A01 T10071007  RH  100%=      5-min Rain = 0
KSW1 081434Z 01004KT M01/M01 A3027 RMK A01 T10071007  RH  100%=      5-min Rain = 0
KSW1 081435Z 02005KT M01/M01 A3027 RMK A01 T10071007  RH  100%=      5-min Rain = 0
KSW1 081436Z 02005KT M01/M01 A3027 RMK A01 T10071007  RH  100%=      5-min Rain = 0
KSW1 081437Z 02005KT M01/M01 A3027 RMK A01 T10071007  RH  100%=      5-min Rain = 0
KSW1 081438Z 02005KT M01/M01 A3027 RMK A01 T10071007  RH  100%=      5-min Rain = 0
KSW1 081439Z 02005KT M01/M01 A3027 RMK A01 T10071007  RH  100%=      5-min Rain = 0
KSW1 081440Z 02005KT M01/M01 A3027 RMK A01 T10071007  RH  100%=      5-min Rain = 0
KSW1 081441Z 02005KT M01/M01 A3027 RMK A01 T10071007  RH  100%=      5-min Rain = 0
KSW1 081442Z 02005KT M01/M01 A3027 RMK A01 T10071007  RH  100%=      5-min Rain = 0
KSW1 081443Z 01004KT M01/M01 A3027 RMK A01 T10071007  RH  100%=      5-min Rain = 0
KSW1 081444Z 01004KT M01/M01 A3027 RMK A01 T10071007  RH  100%=      5-min Rain = 0
KSW1 081445Z 01004KT M01/M01 A3027 RMK A01 T10071007  RH  100%=      5-min Rain = 0
KSW1 081446Z 02005KT M01/M01 A3027 RMK A01 T10071008  RH  100%=      5-min Rain = 0
KSW1 081447Z 01005KT M01/M01 A3027 RMK A01 T10071007  RH  100%=      5-min Rain = 0
KSW1 081448Z 01004KT M01/M01 A3027 RMK A01 T10081008  RH  100%=      5-min Rain = 0
KSW1 081449Z 02004KT M01/M01 A3027 RMK A01 T10081008  RH  100%=      5-min Rain = 0
KSW1 081450Z 02004KT M01/M01 A3027 RMK A01 T10071008  RH  100%=      5-min Rain = 0
KSW1 081451Z 02004KT M01/M01 A3027 RMK A01 T10081008  RH  100%=      5-min Rain = 0
KSW1 081452Z 02004KT M01/M01 A3027 RMK A01 T10081008  RH  100%=      5-min Rain = 0
KSW1 081453Z 01004KT M01/M01 A3027 RMK A01 T10081008  RH  100%=      5-min Rain = 0
KSW1 081454Z 02005KT M01/M01 A3027 RMK A01 T10081008  RH  100%=      5-min Rain = 0
KSW1 081455Z 02005KT M01/M01 A3027 RMK A01 T10081008  RH  100%=      5-min Rain = 0
KSW1 081456Z 02005KT M01/M01 A3027 RMK A01 T10081009  RH  100%=      5-min Rain = 0
KSW1 081457Z 02006KT M01/M01 A3027 RMK A01 T10081008  RH  100%=      5-min Rain = 0
KSW1 081458Z 02005KT M01/M01 A3028 RMK A01 T10091009  RH  100%=      5-min Rain = 0
KSW1 081459Z 02005KT M01/M01 A3028 RMK A01 T10081009  RH  100%=      5-min Rain = 0
KSW1 081500Z 02005KT M01/M01 A3028 RMK A01 T10091009  RH  100%=      5-min Rain = 0
KSW1 081501Z 02005KT M01/M01 A3028 RMK A01 T10091009  RH  100%=      5-min Rain = 0
KSW1 081502Z 02005KT M01/M01 A3028 RMK A01 T10081009  RH  100%=      5-min Rain = 0
KSW1 081503Z 02005KT M01/M01 A3028 RMK A01 T10081009  RH  100%=      5-min Rain = 0
KSW1 081504Z 02005KT M01/M01 A3028 RMK A01 T10091009  RH  100%=      5-min Rain = 0
KSW1 081505Z 02005KT M01/M01 A3028 RMK A01 T10091009  RH  100%=      5-min Rain = 0
KSW1 081506Z 02005KT M01/M01 A3028 RMK A01 T10081008  RH  100%=      5-min Rain = 0
KSW1 081507Z 01004KT M01/M01 A3028 RMK A01 T10091009  RH  100%=      5-min Rain = 0
KSW1 081508Z 02003KT M01/M01 A3028 RMK A01 T10091009  RH  100%=      5-min Rain = 0
KSW1 081509Z 02003KT M01/M01 A3028 RMK A01 T10081008  RH  100%=      5-min Rain = 0
KSW1 081510Z 02005KT M01/M01 A3028 RMK A01 T10081008  RH  100%=      5-min Rain = 0
KSW1 081511Z 02004KT M01/M01 A3028 RMK A01 T10081008  RH  100%=      5-min Rain = 0
KSW1 081512Z 02005KT M01/M01 A3028 RMK A01 T10081008  RH  100%=      5-min Rain = 0
KSW1 081513Z 02004KT M01/M01 A3028 RMK A01 T10081008  RH  100%=      5-min Rain = 0
KSW1 081514Z 02004KT M01/M01 A3028 RMK A01 T10081008  RH  100%=      5-min Rain = 0
KSW1 081515Z 02005KT M01/M01 A3028 RMK A01 T10081008  RH  100%=      5-min Rain = 0
KSW1 081516Z 01004KT M01/M01 A3028 RMK A01 T10081008  RH  100%=      5-min Rain = 0
KSW1 081517Z 02004KT M01/M01 A3028 RMK A01 T10081008  RH  100%=      5-min Rain = 0
KSW1 081518Z 02003KT M01/M01 A3028 RMK A01 T10081008  RH  100%=      5-min Rain = 0
KSW1 081519Z 02004KT M01/M01 A3028 RMK A01 T10081008  RH  100%=      5-min Rain = 0
KSW1 081520Z 02005KT M01/M01 A3028 RMK A01 T10081008  RH  100%=      5-min Rain = 0
KSW1 081521Z 01004KT M01/M01 A3028 RMK A01 T10081008  RH  100%=      5-min Rain = 0
KSW1 081522Z 01004KT M01/M01 A3028 RMK A01 T10081008  RH  100%=      5-min Rain = 0
KSW1 081523Z 02004KT M01/M01 A3029 RMK A01 T10081008  RH  100%=      5-min Rain = 0
KSW1 081524Z 01004KT M01/M01 A3029 RMK A01 T10081008  RH  100%=      5-min Rain = 0
KSW1 081525Z 02004KT M01/M01 A3029 RMK A01 T10081008  RH  100%=      5-min Rain = 0
KSW1 081526Z 02005KT M01/M01 A3029 RMK A01 T10081008  RH  100%=      5-min Rain = 0
KSW1 081527Z 02005KT M01/M01 A3029 RMK A01 T10081008  RH  100%=      5-min Rain = 0
KSW1 081528Z 02004KT M01/M01 A3029 RMK A01 T10081008  RH  100%=      5-min Rain = 0
KSW1 081529Z 02005KT M01/M01 A3029 RMK A01 T10081008  RH  100%=      5-min Rain = 0
KSW1 081530Z 02004KT M01/M01 A3029 RMK A01 T10081008  RH  100%=      5-min Rain = 0
KSW1 081531Z 02003KT M01/M01 A3029 RMK A01 T10081008  RH  100%=      5-min Rain = 0
KSW1 081532Z 02004KT M01/M01 A3029 RMK A01 T10081008  RH  100%=      5-min Rain = 0
KSW1 081533Z 02004KT M01/M01 A3029 RMK A01 T10081008  RH  100%=      5-min Rain = 0
KSW1 081534Z 01004KT M01/M01 A3029 RMK A01 T10071008  RH  100%=      5-min Rain = 0
KSW1 081535Z 01004KT M01/M01 A3029 RMK A01 T10081008  RH  100%=      5-min Rain = 0
KSW1 081536Z 02005KT M01/M01 A3029 RMK A01 T10081008  RH  100%=      5-min Rain = 0
KSW1 081537Z 02005KT M01/M01 A3029 RMK A01 T10081008  RH  100%=      5-min Rain = 0
KSW1 081538Z 01004KT M01/M01 A3029 RMK A01 T10081008  RH  100%=      5-min Rain = 0
KSW1 081539Z 02004KT M01/M01 A3029 RMK A01 T10081008  RH  100%=      5-min Rain = 0
KSW1 081540Z 01004KT M01/M01 A3029 RMK A01 T10081008  RH  100%=      5-min Rain = 0
KSW1 081541Z 01004KT M01/M01 A3029 RMK A01 T10081008  RH  100%=      5-min Rain = 0
KSW1 081542Z 01004KT M01/M01 A3029 RMK A01 T10081008  RH  100%=      5-min Rain = 0
KSW1 081543Z 02004KT M01/M01 A3029 RMK A01 T10081008  RH  100%=      5-min Rain = 0
KSW1 081544Z 01004KT M01/M01 A3029 RMK A01 T10081008  RH  100%=      5-min Rain = 0
KSW1 081545Z 02004KT M01/M01 A3029 RMK A01 T10081008  RH  100%=      5-min Rain = 0
KSW1 081546Z 02005KT M01/M01 A3029 RMK A01 T10081008  RH  100%=      5-min Rain = 0
KSW1 081547Z 02004KT M01/M01 A3029 RMK A01 T10081008  RH  100%=      5-min Rain = 0
KSW1 081548Z 01004KT M01/M01 A3029 RMK A01 T10081008  RH  100%=      5-min Rain = 0
KSW1 081549Z 02004KT M01/M01 A3029 RMK A01 T10081008  RH  100%=      5-min Rain = 0
KSW1 081550Z 01004KT M01/M01 A3029 RMK A01 T10081008  RH  100%=      5-min Rain = 0
KSW1 081551Z 02004KT M01/M01 A3029 RMK A01 T10081008  RH  100%=      5-min Rain = 0
KSW1 081552Z 01004KT M01/M01 A3029 RMK A01 T10081009  RH  100%=      5-min Rain = 0
KSW1 081553Z 01004KT M01/M01 A3029 RMK A01 T10081008  RH  100%=      5-min Rain = 0
KSW1 081554Z 01004KT M01/M01 A3029 RMK A01 T10091009  RH  100%=      5-min Rain = 0
KSW1 081555Z 01004KT M01/M01 A3029 RMK A01 T10081009  RH  100%=      5-min Rain = 0
KSW1 081556Z 01003KT M01/M01 A303 RMK A01 T10081009  RH  100%=      5-min Rain = 0
KSW1 081557Z 01004KT M01/M01 A303 RMK A01 T10081008  RH  100%=      5-min Rain = 0
KSW1 081558Z 01004KT M01/M01 A303 RMK A01 T10081008  RH  100%=      5-min Rain = 0
KSW1 081559Z 00004KT M01/M01 A303 RMK A01 T10081008  RH  100%=      5-min Rain = 0
KSW1 081600Z 01005KT M01/M01 A303 RMK A01 T10081008  RH  100%=      5-min Rain = 0
KSW1 081601Z 01004KT M01/M01 A303 RMK A01 T10091009  RH  100%=      5-min Rain = 0
KSW1 081602Z 01004KT M01/M01 A303 RMK A01 T10091009  RH  100%=      5-min Rain = 0
KSW1 081603Z 02004KT M01/M01 A303 RMK A01 T10091009  RH  100%=      5-min Rain = 0
KSW1 081604Z 01004KT M01/M01 A303 RMK A01 T10081009  RH  100%=      5-min Rain = 0
KSW1 081605Z 02005KT M01/M01 A303 RMK A01 T10091009  RH  100%=      5-min Rain = 0
KSW1 081606Z 02004KT M01/M01 A303 RMK A01 T10081008  RH  100%=      5-min Rain = 0
KSW1 081607Z 02004KT M01/M01 A303 RMK A01 T10081008  RH  100%=      5-min Rain = 0
KSW1 081608Z 01004KT M01/M01 A303 RMK A01 T10081008  RH  100%=      5-min Rain = 0
KSW1 081609Z 02004KT M01/M01 A303 RMK A01 T10081008  RH  100%=      5-min Rain = 0
KSW1 081610Z 01003KT M01/M01 A303 RMK A01 T10071008  RH  100%=      5-min Rain = 0
KSW1 081611Z 01004KT M01/M01 A303 RMK A01 T10081008  RH  100%=      5-min Rain = 0
KSW1 081612Z 01004KT M01/M01 A303 RMK A01 T10071007  RH  100%=      5-min Rain = 0
KSW1 081613Z 01004KT M01/M01 A303 RMK A01 T10071007  RH  100%=      5-min Rain = 0
KSW1 081614Z 01004KT M01/M01 A303 RMK A01 T10071007  RH  100%=      5-min Rain = 0
KSW1 081615Z 01004KT M01/M01 A303 RMK A01 T10071007  RH  100%=      5-min Rain = 0
KSW1 081616Z 01004KT M01/M01 A303 RMK A01 T10071007  RH  100%=      5-min Rain = 0
KSW1 081617Z 00003KT M01/M01 A303 RMK A01 T10071007  RH  100%=      5-min Rain = 0
KSW1 081618Z 00004KT M01/M01 A303 RMK A01 T10071007  RH  100%=      5-min Rain = 0
KSW1 081619Z 01003KT M01/M01 A303 RMK A01 T10071007  RH  100%=      5-min Rain = 0
KSW1 081620Z 01004KT M01/M01 A303 RMK A01 T10071007  RH  100%=      5-min Rain = 0
KSW1 081621Z 01003KT M01/M01 A303 RMK A01 T10071007  RH  100%=      5-min Rain = 0
KSW1 081622Z 01004KT M01/M01 A3031 RMK A01 T10071007  RH  100%=      5-min Rain = 0
KSW1 081623Z 01004KT M01/M01 A3031 RMK A01 T10071007  RH  100%=      5-min Rain = 0
KSW1 081624Z 00004KT M01/M01 A3031 RMK A01 T10081008  RH  100%=      5-min Rain = 0
KSW1 081625Z 01004KT M01/M01 A3031 RMK A01 T10081008  RH  100%=      5-min Rain = 0
KSW1 081626Z 01005KT M01/M01 A3031 RMK A01 T10081008  RH  100%=      5-min Rain = 0
KSW1 081627Z 01005KT M01/M01 A3031 RMK A01 T10081008  RH  100%=      5-min Rain = 0
KSW1 081628Z 01003KT M01/M01 A3031 RMK A01 T10081008  RH  100%=      5-min Rain = 0
KSW1 081629Z 01004KT M01/M01 A3031 RMK A01 T10081008  RH  100%=      5-min Rain = 0
KSW1 081630Z 01004KT M01/M01 A3031 RMK A01 T10081008  RH  100%=      5-min Rain = 0
KSW1 081631Z 02004KT M01/M01 A3031 RMK A01 T10081008  RH  100%=      5-min Rain = 0
KSW1 081632Z 02003KT M01/M01 A3031 RMK A01 T10081008  RH  100%=      5-min Rain = 0
KSW1 081633Z 01003KT M01/M01 A3031 RMK A01 T10071008  RH  100%=      5-min Rain = 0
KSW1 081634Z 00004KT M01/M01 A3031 RMK A01 T10071007  RH  100%=      5-min Rain = 0
KSW1 081635Z 00004KT M01/M01 A3031 RMK A01 T10071007  RH  100%=      5-min Rain = 0
KSW1 081636Z 00004KT M01/M01 A3031 RMK A01 T10071007  RH  100%=      5-min Rain = 0
KSW1 081637Z 01003KT M01/M01 A3031 RMK A01 T10071007  RH  100%=      5-min Rain = 0
KSW1 081638Z 36003KT M01/M01 A3031 RMK A01 T10071007  RH  100%=      5-min Rain = 0
KSW1 081639Z 35004KT M01/M01 A3031 RMK A01 T10071007  RH  100%=      5-min Rain = 0
KSW1 081640Z 00004KT M01/M01 A3031 RMK A01 T10071007  RH  100%=      5-min Rain = 0
KSW1 081641Z 00004KT M01/M01 A3031 RMK A01 T10071007  RH  100%=      5-min Rain = 0
KSW1 081642Z 00004KT M01/M01 A3031 RMK A01 T10071007  RH  100%=      5-min Rain = 0
KSW1 081643Z 36004KT M01/M01 A3031 RMK A01 T10071007  RH  100%=      5-min Rain = 0
KSW1 081644Z 00003KT M01/M01 A3031 RMK A01 T10071007  RH  100%=      5-min Rain = 0
KSW1 081645Z 01004KT M01/M01 A3031 RMK A01 T10061007  RH  100%=      5-min Rain = 0
KSW1 081646Z 00004KT M01/M01 A3031 RMK A01 T10061006  RH  100%=      5-min Rain = 0
KSW1 081647Z 01004KT M01/M01 A3031 RMK A01 T10061006  RH  100%=      5-min Rain = 0
KSW1 081648Z 01004KT M01/M01 A3031 RMK A01 T10061006  RH  100%=      5-min Rain = 0
KSW1 081649Z 01004KT M01/M01 A3031 RMK A01 T10061006  RH  100%=      5-min Rain = 0
KSW1 081650Z 01004KT M01/M01 A3031 RMK A01 T10061006  RH  100%=      5-min Rain = 0
KSW1 081651Z 01004KT M01/M01 A3031 RMK A01 T10061007  RH  100%=      5-min Rain = 0.01
KSW1 081652Z 01003KT M01/M01 A3031 RMK A01 T10061006  RH  100%=      5-min Rain = 0
KSW1 081653Z 01003KT M01/M01 A3031 RMK A01 T10061006  RH  100%=      5-min Rain = 0
KSW1 081654Z 36003KT M01/M01 A3031 RMK A01 T10051005  RH  100%=      5-min Rain = 0
KSW1 081655Z 01003KT M01/M01 A3031 RMK A01 T10051005  RH  100%=      5-min Rain = 0
KSW1 081656Z 01003KT M01/M01 A3031 RMK A01 T10051005  RH  100%=      5-min Rain = 0
KSW1 081657Z 01004KT M01/M01 A3031 RMK A01 T10051005  RH  100%=      5-min Rain = 0
KSW1 081658Z 01004KT M01/M01 A3031 RMK A01 T10051005  RH  100%=      5-min Rain = 0
KSW1 081659Z 00004KT M01/M01 A3031 RMK A01 T10051005  RH  100%=      5-min Rain = 0
KSW1 081700Z 01004KT M01/M01 A3031 RMK A01 T10051005  RH  100%=      5-min Rain = 0
KSW1 081701Z 01005KT M01/M01 A3031 RMK A01 T10051005  RH  100%=      5-min Rain = 0
KSW1 081702Z 00004KT M01/M01 A3031 RMK A01 T10051005  RH  100%=      5-min Rain = 0.01
KSW1 081703Z 01004KT M01/M01 A3031 RMK A01 T10051005  RH  100%=      5-min Rain = 0
KSW1 081704Z 36005KT M01/M01 A3031 RMK A01 T10051005  RH  100%=      5-min Rain = 0
KSW1 081705Z 00004KT M01/M01 A3031 RMK A01 T10061006  RH  100%=      5-min Rain = 0
KSW1 081706Z 00005KT M01/M01 A3031 RMK A01 T10061006  RH  100%=      5-min Rain = 0
KSW1 081707Z 00005KT M01/M01 A3031 RMK A01 T10061006  RH  100%=      5-min Rain = 0
KSW1 081708Z 36004KT M01/M01 A3031 RMK A01 T10061007  RH  100%=      5-min Rain = 0
KSW1 081709Z 00004KT M01/M01 A3031 RMK A01 T10061006  RH  100%=      5-min Rain = 0
KSW1 081710Z 36005KT M01/M01 A3031 RMK A01 T10061007  RH  100%=      5-min Rain = 0
KSW1 081711Z 35004KT M01/M01 A3031 RMK A01 T10071007  RH  100%=      5-min Rain = 0
KSW1 081712Z 35003KT M01/M01 A3031 RMK A01 T10071007  RH  100%=      5-min Rain = 0
KSW1 081713Z 36005KT M01/M01 A3031 RMK A01 T10071007  RH  100%=      5-min Rain = 0
KSW1 081714Z 36004KT M01/M01 A3031 RMK A01 T10071007  RH  100%=      5-min Rain = 0
KSW1 081715Z 36004KT M01/M01 A3031 RMK A01 T10071007  RH  100%=      5-min Rain = 0.01
KSW1 081716Z 00003KT M01/M01 A3031 RMK A01 T10081008  RH  100%=      5-min Rain = 0
KSW1 081717Z 36003KT M01/M01 A3031 RMK A01 T10071007  RH  100%=      5-min Rain = 0
KSW1 081718Z 36004KT M01/M01 A3031 RMK A01 T10071007  RH  100%=      5-min Rain = 0
KSW1 081719Z 00004KT M01/M01 A3031 RMK A01 T10071007  RH  100%=      5-min Rain = 0
KSW1 081720Z 00004KT M01/M01 A3031 RMK A01 T10071007  RH  100%=      5-min Rain = 0
KSW1 081721Z 01003KT M01/M01 A3031 RMK A01 T10071007  RH  100%=      5-min Rain = 0
KSW1 081722Z 00004KT M01/M01 A3031 RMK A01 T10071007  RH  100%=      5-min Rain = 0
KSW1 081723Z 01004KT M01/M01 A3031 RMK A01 T10071007  RH  100%=      5-min Rain = 0
KSW1 081724Z 00003KT M01/M01 A3031 RMK A01 T10081008  RH  100%=      5-min Rain = 0
KSW1 081725Z 00004KT M01/M01 A3031 RMK A01 T10081008  RH  100%=      5-min Rain = 0
KSW1 081726Z 01004KT M01/M01 A3031 RMK A01 T10081008  RH  100%=      5-min Rain = 0
KSW1 081727Z 00004KT M01/M01 A3031 RMK A01 T10081008  RH  100%=      5-min Rain = 0
KSW1 081728Z 00004KT M01/M01 A3031 RMK A01 T10081008  RH  100%=      5-min Rain = 0
KSW1 081729Z 00004KT M01/M01 A3031 RMK A01 T10081008  RH  100%=      5-min Rain = 0
KSW1 081730Z 01004KT M01/M01 A3031 RMK A01 T10081008  RH  100%=      5-min Rain = 0
KSW1 081731Z 01005KT M01/M01 A3031 RMK A01 T10081008  RH  100%=      5-min Rain = 0
KSW1 081732Z 00004KT M01/M01 A3031 RMK A01 T10081008  RH  100%=      5-min Rain = 0
KSW1 081733Z 36004KT M01/M01 A3031 RMK A01 T10081008  RH  100%=      5-min Rain = 0
KSW1 081734Z 36004KT M01/M01 A3031 RMK A01 T10081008  RH  100%=      5-min Rain = 0
KSW1 081735Z 00004KT M01/M01 A3031 RMK A01 T10081008  RH  100%=      5-min Rain = 0
KSW1 081736Z 00004KT M01/M01 A3031 RMK A01 T10081008  RH  100%=      5-min Rain = 0.01
KSW1 081737Z 35003KT M01/M01 A3031 RMK A01 T10081008  RH  100%=      5-min Rain = 0
KSW1 081738Z 36003KT M01/M01 A3031 RMK A01 T10071007  RH  100%=      5-min Rain = 0
KSW1 081739Z 36003KT M01/M01 A3031 RMK A01 T10071007  RH  100%=      5-min Rain = 0
KSW1 081740Z 35003KT M01/M01 A3031 RMK A01 T10071007  RH  100%=      5-min Rain = 0
KSW1 081741Z 36003KT M01/M01 A3031 RMK A01 T10061006  RH  100%=      5-min Rain = 0
KSW1 081742Z 35004KT M01/M01 A3031 RMK A01 T10061006  RH  100%=      5-min Rain = 0
KSW1 081743Z 00004KT M01/M01 A3031 RMK A01 T10061006  RH  100%=      5-min Rain = 0
KSW1 081744Z 35004KT M01/M01 A3031 RMK A01 T10061006  RH  100%=      5-min Rain = 0
KSW1 081745Z 00004KT M01/M01 A3031 RMK A01 T10061006  RH  100%=      5-min Rain = 0
KSW1 081746Z 00004KT M01/M01 A3031 RMK A01 T10061006  RH  100%=      5-min Rain = 0
KSW1 081747Z 35003KT M01/M01 A3031 RMK A01 T10061006  RH  100%=      5-min Rain = 0
KSW1 081748Z 35003KT M01/M01 A303 RMK A01 T10061006  RH  100%=      5-min Rain = 0
KSW1 081749Z 35004KT M01/M01 A303 RMK A01 T10051005  RH  100%=      5-min Rain = 0
KSW1 081750Z 35004KT M01/M01 A303 RMK A01 T10051005  RH  100%=      5-min Rain = 0
KSW1 081751Z 35004KT M01/M01 A303 RMK A01 T10051005  RH  100%=      5-min Rain = 0
KSW1 081752Z 35004KT M01/M01 A303 RMK A01 T10051006  RH  100%=      5-min Rain = 0
KSW1 081753Z 36005KT M01/M01 A303 RMK A01 T10051005  RH  100%=      5-min Rain = 0
KSW1 081754Z 35004KT M01/M01 A303 RMK A01 T10061006  RH  100%=      5-min Rain = 0
KSW1 081755Z 35004KT M01/M01 A303 RMK A01 T10051005  RH  100%=      5-min Rain = 0
KSW1 081756Z 35004KT M01/M01 A303 RMK A01 T10051006  RH  100%=      5-min Rain = 0
KSW1 081757Z 35004KT M01/M01 A303 RMK A01 T10051005  RH  100%=      5-min Rain = 0
KSW1 081758Z 36004KT M01/M01 A303 RMK A01 T10051005  RH  100%=      5-min Rain = 0
KSW1 081759Z 36004KT M00/M00 A303 RMK A01 T10041004  RH  100%=      5-min Rain = 0
KSW1 081800Z 35003KT M00/M00 A303 RMK A01 T10041004  RH  100%=      5-min Rain = 0
KSW1 081801Z 35004KT M00/M00 A303 RMK A01 T10041004  RH  100%=      5-min Rain = 0
KSW1 081802Z 35003KT M00/M00 A303 RMK A01 T10041004  RH  100%=      5-min Rain = 0
KSW1 081803Z 01003KT M00/M00 A303 RMK A01 T10041004  RH  100%=      5-min Rain = 0
KSW1 081804Z 35003KT M00/M00 A303 RMK A01 T10041004  RH  100%=      5-min Rain = 0
KSW1 081805Z 35003KT M00/M00 A303 RMK A01 T10031003  RH  100%=      5-min Rain = 0
KSW1 081806Z 36003KT M00/M00 A303 RMK A01 T10041004  RH  100%=      5-min Rain = 0
KSW1 081807Z 36003KT M00/M00 A303 RMK A01 T10041004  RH  100%=      5-min Rain = 0
KSW1 081808Z 00003KT M00/M00 A303 RMK A01 T10031003  RH  100%=      5-min Rain = 0
KSW1 081809Z 00003KT M00/M00 A303 RMK A01 T10031003  RH  100%=      5-min Rain = 0
KSW1 081810Z 01003KT M00/M00 A303 RMK A01 T10041004  RH  100%=      5-min Rain = 0
KSW1 081811Z 36003KT M00/M00 A303 RMK A01 T10031003  RH  100%=      5-min Rain = 0
KSW1 081812Z 36004KT M00/M00 A303 RMK A01 T10031003  RH  100%=      5-min Rain = 0
KSW1 081813Z 36004KT M00/M00 A303 RMK A01 T10031003  RH  100%=      5-min Rain = 0
KSW1 081814Z 35004KT M00/M00 A3029 RMK A01 T10031003  RH  100%=      5-min Rain = 0
KSW1 081815Z 35004KT M00/M00 A303 RMK A01 T10041004  RH  100%=      5-min Rain = 0
KSW1 081816Z 36004KT M00/M00 A3029 RMK A01 T10041004  RH  100%=      5-min Rain = 0
KSW1 081817Z 35004KT M00/M00 A3029 RMK A01 T10041004  RH  100%=      5-min Rain = 0
KSW1 081818Z 35003KT M00/M00 A3029 RMK A01 T10041004  RH  100%=      5-min Rain = 0
KSW1 081819Z 36003KT M00/M00 A3029 RMK A01 T10041004  RH  100%=      5-min Rain = 0
KSW1 081820Z 35003KT M00/M00 A3029 RMK A01 T10031003  RH  100%=      5-min Rain = 0
KSW1 081821Z 36003KT M00/M00 A3029 RMK A01 T10031003  RH  100%=      5-min Rain = 0
KSW1 081822Z 36004KT M00/M00 A3029 RMK A01 T10031003  RH  100%=      5-min Rain = 0
KSW1 081823Z 35003KT M00/M00 A3029 RMK A01 T10031003  RH  100%=      5-min Rain = 0
KSW1 081824Z 35003KT M00/M00 A3029 RMK A01 T10031003  RH  100%=      5-min Rain = 0
KSW1 081825Z 36004KT M00/M00 A3029 RMK A01 T10021002  RH  100%=      5-min Rain = 0
KSW1 081826Z 34003KT M00/M00 A3029 RMK A01 T10021002  RH  100%=      5-min Rain = 0
KSW1 081827Z 35003KT M00/M00 A3029 RMK A01 T10021002  RH  100%=      5-min Rain = 0
KSW1 081828Z 35004KT M00/M00 A3029 RMK A01 T10021002  RH  100%=      5-min Rain = 0
KSW1 081829Z 35004KT M00/M00 A3029 RMK A01 T10021002  RH  100%=      5-min Rain = 0
KSW1 081830Z 35004KT M00/M00 A3029 RMK A01 T10031003  RH  100%=      5-min Rain = 0
KSW1 081831Z 35004KT M00/M00 A3029 RMK A01 T10031003  RH  100%=      5-min Rain = 0
KSW1 081832Z 36004KT M00/M00 A3029 RMK A01 T10031004  RH  100%=      5-min Rain = 0
KSW1 081833Z 36004KT M00/M00 A3028 RMK A01 T10031004  RH  100%=      5-min Rain = 0
KSW1 081834Z 01004KT M00/M00 A3028 RMK A01 T10041004  RH  100%=      5-min Rain = 0
KSW1 081835Z 00004KT M00/M00 A3028 RMK A01 T10031004  RH  100%=      5-min Rain = 0
KSW1 081836Z 36004KT M00/M00 A3028 RMK A01 T10031004  RH  100%=      5-min Rain = 0
KSW1 081837Z 36004KT M00/M00 A3028 RMK A01 T10041004  RH  100%=      5-min Rain = 0
KSW1 081838Z 36004KT M00/M00 A3028 RMK A01 T10031004  RH  100%=      5-min Rain = 0
KSW1 081839Z 01004KT M00/M00 A3028 RMK A01 T10041004  RH  100%=      5-min Rain = 0
KSW1 081840Z 00004KT M00/M00 A3028 RMK A01 T10041004  RH  100%=      5-min Rain = 0
KSW1 081841Z 00004KT M00/M00 A3028 RMK A01 T10041004  RH  100%=      5-min Rain = 0
KSW1 081842Z 00004KT M00/M00 A3028 RMK A01 T10041004  RH  100%=      5-min Rain = 0
KSW1 081843Z 36003KT M00/M00 A3028 RMK A01 T10041004  RH  100%=      5-min Rain = 0
KSW1 081844Z 00003KT M00/M00 A3028 RMK A01 T10041004  RH  100%=      5-min Rain = 0
KSW1 081845Z 36003KT M00/M00 A3028 RMK A01 T10041004  RH  100%=      5-min Rain = 0
KSW1 081846Z 35004KT M00/M00 A3028 RMK A01 T10041004  RH  100%=      5-min Rain = 0
KSW1 081847Z 35004KT M00/M00 A3028 RMK A01 T10031003  RH  100%=      5-min Rain = 0
KSW1 081848Z 35004KT M00/M00 A3028 RMK A01 T10031003  RH  100%=      5-min Rain = 0
KSW1 081849Z 35003KT M00/M00 A3028 RMK A01 T10031003  RH  100%=      5-min Rain = 0
KSW1 081850Z 34004KT M00/M00 A3028 RMK A01 T10031004  RH  100%=      5-min Rain = 0
KSW1 081851Z 34003KT M00/M00 A3028 RMK A01 T10031004  RH  100%=      5-min Rain = 0
KSW1 081852Z 34004KT M00/M00 A3028 RMK A01 T10031003  RH  100%=      5-min Rain = 0
KSW1 081853Z 35004KT M00/M00 A3028 RMK A01 T10041004  RH  100%=      5-min Rain = 0
KSW1 081854Z 35003KT M00/M00 A3028 RMK A01 T10031004  RH  100%=      5-min Rain = 0
KSW1 081855Z 34003KT M00/M00 A3028 RMK A01 T10031004  RH  100%=      5-min Rain = 0
KSW1 081856Z 34003KT M00/M00 A3028 RMK A01 T10031003  RH  100%=      5-min Rain = 0
KSW1 081857Z 33003KT M00/M00 A3028 RMK A01 T10031003  RH  100%=      5-min Rain = 0
KSW1 081858Z 34004KT M00/M00 A3028 RMK A01 T10031003  RH  100%=      5-min Rain = 0
KSW1 081859Z 34004KT M00/M00 A3028 RMK A01 T10041004  RH  100%=      5-min Rain = 0
KSW1 081900Z 33004KT M00/M00 A3028 RMK A01 T10041004  RH  100%=      5-min Rain = 0
KSW1 081901Z 34004KT M00/M00 A3028 RMK A01 T10041004  RH  100%=      5-min Rain = 0
KSW1 081902Z 34004KT M00/M00 A3028 RMK A01 T10041004  RH  100%=      5-min Rain = 0
KSW1 081903Z 34004KT M00/M00 A3028 RMK A01 T10041004  RH  100%=      5-min Rain = 0
KSW1 081904Z 34003KT M00/M00 A3028 RMK A01 T10041004  RH  100%=      5-min Rain = 0
KSW1 081905Z 34003KT M00/M00 A3028 RMK A01 T10041004  RH  100%=      5-min Rain = 0
KSW1 081906Z 34003KT M00/M00 A3028 RMK A01 T10031004  RH  100%=      5-min Rain = 0
KSW1 081907Z 35004KT M00/M00 A3028 RMK A01 T10031004  RH  100%=      5-min Rain = 0
KSW1 081908Z 34004KT M00/M00 A3028 RMK A01 T10031004  RH  100%=      5-min Rain = 0
KSW1 081909Z 34004KT M00/M00 A3028 RMK A01 T10041004  RH  100%=      5-min Rain = 0
KSW1 081910Z 35003KT M00/M00 A3028 RMK A01 T10041004  RH  100%=      5-min Rain = 0
KSW1 081911Z 35004KT M00/M00 A3028 RMK A01 T10031003  RH  100%=      5-min Rain = 0
KSW1 081912Z 35004KT M00/M00 A3028 RMK A01 T10031003  RH  100%=      5-min Rain = 0
KSW1 081913Z 35003KT M00/M00 A3028 RMK A01 T10031003  RH  100%=      5-min Rain = 0
KSW1 081914Z 35003KT M00/M00 A3028 RMK A01 T10021003  RH  100%=      5-min Rain = 0
KSW1 081915Z 35004KT M00/M00 A3028 RMK A01 T10021002  RH  100%=      5-min Rain = 0
KSW1 081916Z 35004KT M00/M00 A3028 RMK A01 T10021002  RH  100%=      5-min Rain = 0
KSW1 081917Z 34003KT M00/M00 A3028 RMK A01 T10021002  RH  100%=      5-min Rain = 0
KSW1 081918Z 35003KT M00/M00 A3028 RMK A01 T10031003  RH  100%=      5-min Rain = 0
KSW1 081919Z 35004KT M00/M00 A3028 RMK A01 T10031003  RH  100%=      5-min Rain = 0
KSW1 081920Z 34003KT M00/M00 A3028 RMK A01 T10021002  RH  100%=      5-min Rain = 0
KSW1 081921Z 35004KT M00/M00 A3028 RMK A01 T10021002  RH  100%=      5-min Rain = 0
KSW1 081922Z 35004KT M00/M00 A3028 RMK A01 T10021002  RH  100%=      5-min Rain = 0
KSW1 081923Z 35004KT M00/M00 A3027 RMK A01 T10031003  RH  100%=      5-min Rain = 0
KSW1 081924Z 35004KT M00/M00 A3027 RMK A01 T10031003  RH  100%=      5-min Rain = 0
KSW1 081925Z 34004KT M00/M00 A3027 RMK A01 T10021003  RH  100%=      5-min Rain = 0
KSW1 081926Z 34004KT M00/M00 A3027 RMK A01 T10031003  RH  100%=      5-min Rain = 0
KSW1 081927Z 34003KT M00/M00 A3027 RMK A01 T10031003  RH  100%=      5-min Rain = 0
KSW1 081928Z 35004KT M00/M00 A3027 RMK A01 T10021002  RH  100%=      5-min Rain = 0
KSW1 081929Z 34004KT M00/M00 A3027 RMK A01 T10021002  RH  100%=      5-min Rain = 0
KSW1 081930Z 35004KT M00/M00 A3027 RMK A01 T10021002  RH  100%=      5-min Rain = 0
KSW1 081931Z 34004KT M00/M00 A3027 RMK A01 T10021002  RH  100%=      5-min Rain = 0
KSW1 081932Z 34004KT M00/M00 A3027 RMK A01 T10021002  RH  100%=      5-min Rain = 0
KSW1 081933Z 34005KT M00/M00 A3027 RMK A01 T10021002  RH  100%=      5-min Rain = 0
KSW1 081934Z 34005KT M00/M00 A3027 RMK A01 T10021002  RH  100%=      5-min Rain = 0
KSW1 081935Z 35003KT M00/M00 A3027 RMK A01 T10031003  RH  100%=      5-min Rain = 0
KSW1 081936Z 34004KT M00/M00 A3027 RMK A01 T10021002  RH  100%=      5-min Rain = 0
KSW1 081937Z 35004KT M00/M00 A3027 RMK A01 T10021002  RH  100%=      5-min Rain = 0
KSW1 081938Z 35004KT M00/M00 A3027 RMK A01 T10021002  RH  100%=      5-min Rain = 0
KSW1 081939Z 35004KT M00/M00 A3027 RMK A01 T10021002  RH  100%=      5-min Rain = 0
KSW1 081940Z 35004KT M00/M00 A3027 RMK A01 T10021002  RH  100%=      5-min Rain = 0
KSW1 081941Z 35003KT M00/M00 A3027 RMK A01 T10021002  RH  100%=      5-min Rain = 0
KSW1 081942Z 34003KT M00/M00 A3027 RMK A01 T10011001  RH  100%=      5-min Rain = 0
KSW1 081943Z 34003KT M00/M00 A3027 RMK A01 T10011001  RH  100%=      5-min Rain = 0
KSW1 081944Z 35004KT M00/M00 A3027 RMK A01 T10011001  RH  100%=      5-min Rain = 0
KSW1 081945Z 34004KT 00/00 A3027 RMK A01 T00-000-0  RH  100%=      5-min Rain = 0
KSW1 081946Z 35005KT 00/00 A3027 RMK A01 T00000000  RH  100%=      5-min Rain = 0
KSW1 081947Z 34004KT 00/00 A3027 RMK A01 T00000000  RH  100%=      5-min Rain = 0
KSW1 081948Z 35003KT 00/00 A3027 RMK A01 T00000000  RH  100%=      5-min Rain = 0
KSW1 081949Z 35003KT 00/00 A3027 RMK A01 T00000000  RH  100%=      5-min Rain = 0
KSW1 081950Z 34004KT 00/00 A3027 RMK A01 T00010001  RH  100%=      5-min Rain = 0
KSW1 081951Z 35004KT 00/00 A3027 RMK A01 T00010001  RH  100%=      5-min Rain = 0
KSW1 081952Z 35003KT 00/00 A3027 RMK A01 T00000000  RH  100%=      5-min Rain = 0
KSW1 081953Z 34004KT 00/00 A3027 RMK A01 T00010000  RH  100%=      5-min Rain = 0
KSW1 081954Z 34003KT 00/00 A3027 RMK A01 T00010001  RH  100%=      5-min Rain = 0
KSW1 081955Z 34004KT 00/00 A3027 RMK A01 T00-000-0  RH  100%=      5-min Rain = 0
KSW1 081956Z 34003KT 00/00 A3027 RMK A01 T00-000-1  RH  100%=      5-min Rain = 0
KSW1 081957Z 35003KT 00/00 A3027 RMK A01 T00-000-0  RH  100%=      5-min Rain = 0
KSW1 081958Z 35004KT 00/00 A3027 RMK A01 T00-000-0  RH  100%=      5-min Rain = 0
KSW1 081959Z 34004KT M00/M00 A3027 RMK A01 T10011001  RH  100%=      5-min Rain = 0
KSW1 082000Z 34003KT M00/M00 A3027 RMK A01 T10011001  RH  100%=      5-min Rain = 0
KSW1 082001Z 34004KT 00/00 A3027 RMK A01 T00-000-1  RH  100%=      5-min Rain = 0
KSW1 082002Z 34003KT 00/00 A3027 RMK A01 T00-000-0  RH  100%=      5-min Rain = 0
KSW1 082003Z 35004KT 00/00 A3027 RMK A01 T00-000-1  RH  100%=      5-min Rain = 0
KSW1 082004Z 34004KT 00/00 A3027 RMK A01 T00-000-0  RH  100%=      5-min Rain = 0
KSW1 082005Z 34004KT M00/M00 A3027 RMK A01 T10011001  RH  100%=      5-min Rain = 0
KSW1 082006Z 34004KT M00/M00 A3027 RMK A01 T10011001  RH  100%=      5-min Rain = 0
KSW1 082007Z 34004KT M00/M00 A3027 RMK A01 T10021002  RH  100%=      5-min Rain = 0
KSW1 082008Z 34004KT M00/M00 A3027 RMK A01 T10021002  RH  100%=      5-min Rain = 0
KSW1 082009Z 35004KT M00/M00 A3027 RMK A01 T10011002  RH  100%=      5-min Rain = 0
KSW1 082010Z 35004KT M00/M00 A3027 RMK A01 T10011001  RH  100%=      5-min Rain = 0
KSW1 082011Z 35004KT M00/M00 A3027 RMK A01 T10011001  RH  100%=      5-min Rain = 0
KSW1 082012Z 35003KT M00/M00 A3027 RMK A01 T10011001  RH  100%=      5-min Rain = 0
KSW1 082013Z 35004KT M00/M00 A3027 RMK A01 T10021002  RH  100%=      5-min Rain = 0
KSW1 082014Z 34003KT M00/M00 A3027 RMK A01 T10021002  RH  100%=      5-min Rain = 0
KSW1 082015Z 33003KT M00/M00 A3027 RMK A01 T10021002  RH  100%=      5-min Rain = 0
KSW1 082016Z 34004KT M00/M00 A3027 RMK A01 T10021002  RH  100%=      5-min Rain = 0
KSW1 082017Z 34004KT M00/M00 A3027 RMK A01 T10011001  RH  100%=      5-min Rain = 0
KSW1 082018Z 35004KT M00/M00 A3027 RMK A01 T10011001  RH  100%=      5-min Rain = 0
KSW1 082019Z 34004KT M00/M00 A3027 RMK A01 T10011001  RH  100%=      5-min Rain = 0
KSW1 082020Z 35003KT M00/M00 A3027 RMK A01 T10011002  RH  100%=      5-min Rain = 0
KSW1 082021Z 34003KT M00/M00 A3027 RMK A01 T10011001  RH  100%=      5-min Rain = 0
KSW1 082022Z 34003KT M00/M00 A3027 RMK A01 T10011001  RH  100%=      5-min Rain = 0
KSW1 082023Z 35003KT M00/M00 A3027 RMK A01 T10011001  RH  100%=      5-min Rain = 0
KSW1 082024Z 35003KT 00/00 A3027 RMK A01 T00-000-1  RH  100%=      5-min Rain = 0
KSW1 082025Z 35003KT 00/00 A3027 RMK A01 T00-000-0  RH  100%=      5-min Rain = 0
KSW1 082026Z 35003KT 00/00 A3027 RMK A01 T000000-0  RH  100%=      5-min Rain = 0
KSW1 082027Z 35003KT 00/00 A3027 RMK A01 T000000-0  RH  100%=      5-min Rain = 0
KSW1 082028Z 34003KT 00/00 A3027 RMK A01 T00000000  RH  100%=      5-min Rain = 0
KSW1 082029Z 34003KT 00/00 A3027 RMK A01 T000000-0  RH  100%=      5-min Rain = 0
KSW1 082030Z 35003KT 00/00 A3027 RMK A01 T00000000  RH  100%=      5-min Rain = 0
KSW1 082031Z 34004KT 00/00 A3027 RMK A01 T00000000  RH  100%=      5-min Rain = 0
KSW1 082032Z 34003KT 00/00 A3027 RMK A01 T00000000  RH  100%=      5-min Rain = 0
KSW1 082033Z 34003KT 00/00 A3027 RMK A01 T00000000  RH  100%=      5-min Rain = 0
KSW1 082034Z 34004KT 00/00 A3027 RMK A01 T00010001  RH  100%=      5-min Rain = 0
KSW1 082035Z 35003KT 00/00 A3027 RMK A01 T00010001  RH  100%=      5-min Rain = 0
KSW1 082036Z 34003KT 00/00 A3027 RMK A01 T00010001  RH  100%=      5-min Rain = 0
KSW1 082037Z 34003KT 00/00 A3027 RMK A01 T00010001  RH  100%=      5-min Rain = 0
KSW1 082038Z 34003KT 00/00 A3027 RMK A01 T00010001  RH  100%=      5-min Rain = 0
KSW1 082039Z 34003KT 00/00 A3027 RMK A01 T00010001  RH  100%=      5-min Rain = 0
KSW1 082040Z 34003KT 00/00 A3027 RMK A01 T00010001  RH  100%=      5-min Rain = 0
KSW1 082041Z 34003KT 00/00 A3027 RMK A01 T00010001  RH  100%=      5-min Rain = 0
KSW1 082042Z 34003KT 00/00 A3027 RMK A01 T00010000  RH  100%=      5-min Rain = 0
KSW1 082043Z 34003KT 00/00 A3027 RMK A01 T00010001  RH  100%=      5-min Rain = 0
KSW1 082044Z 34003KT 00/00 A3027 RMK A01 T00010001  RH  100%=      5-min Rain = 0
KSW1 082045Z 35003KT 00/00 A3027 RMK A01 T00010000  RH  100%=      5-min Rain = 0
KSW1 082046Z 34002KT 00/00 A3027 RMK A01 T000000-0  RH  100%=      5-min Rain = 0
KSW1 082047Z 35003KT 00/00 A3027 RMK A01 T00010000  RH  100%=      5-min Rain = 0
KSW1 082048Z 34003KT 00/00 A3027 RMK A01 T00010001  RH  100%=      5-min Rain = 0
KSW1 082049Z 34003KT 00/00 A3027 RMK A01 T00010001  RH  100%=      5-min Rain = 0
KSW1 082050Z 35004KT 00/00 A3027 RMK A01 T00010001  RH  100%=      5-min Rain = 0
KSW1 082051Z 35003KT 00/00 A3027 RMK A01 T00000000  RH  100%=      5-min Rain = 0
KSW1 082052Z 35003KT 00/00 A3027 RMK A01 T00010000  RH  100%=      5-min Rain = 0
KSW1 082053Z 35003KT 00/00 A3027 RMK A01 T00010000  RH  100%=      5-min Rain = 0
KSW1 082054Z 35003KT 00/00 A3027 RMK A01 T00000000  RH  100%=      5-min Rain = 0
KSW1 082055Z 34003KT 00/00 A3027 RMK A01 T00000000  RH  100%=      5-min Rain = 0
KSW1 082056Z 35003KT 00/00 A3027 RMK A01 T00000000  RH  100%=      5-min Rain = 0
KSW1 082057Z 34002KT 00/00 A3027 RMK A01 T00000000  RH  100%=      5-min Rain = 0
KSW1 082058Z 33002KT 00/00 A3027 RMK A01 T000000-0  RH  100%=      5-min Rain = 0
KSW1 082059Z 34002KT 00/00 A3027 RMK A01 T00010001  RH  100%=      5-min Rain = 0
KSW1 082100Z 34002KT 00/00 A3027 RMK A01 T00010001  RH  100%=      5-min Rain = 0
KSW1 082101Z 34002KT 00/00 A3027 RMK A01 T00010001  RH  100%=      5-min Rain = 0
KSW1 082102Z 34002KT 00/00 A3027 RMK A01 T00010001  RH  100%=      5-min Rain = 0
KSW1 082103Z 35003KT 00/00 A3027 RMK A01 T00010001  RH  100%=      5-min Rain = 0
KSW1 082104Z 34002KT 00/00 A3027 RMK A01 T00010001  RH  100%=      5-min Rain = 0
KSW1 082105Z 35003KT 00/00 A3027 RMK A01 T00010001  RH  100%=      5-min Rain = 0
KSW1 082106Z 35003KT 00/00 A3027 RMK A01 T00010001  RH  100%=      5-min Rain = 0
KSW1 082107Z 35002KT 00/00 A3027 RMK A01 T00000000  RH  100%=      5-min Rain = 0
KSW1 082108Z 35003KT 00/00 A3027 RMK A01 T00010001  RH  100%=      5-min Rain = 0
KSW1 082109Z 34003KT 00/00 A3027 RMK A01 T00010001  RH  100%=      5-min Rain = 0
KSW1 082110Z 34003KT 00/00 A3027 RMK A01 T00010001  RH  100%=      5-min Rain = 0
KSW1 082111Z 33002KT 00/00 A3027 RMK A01 T00010001  RH  100%=      5-min Rain = 0
KSW1 082112Z 35002KT 00/00 A3027 RMK A01 T00010001  RH  100%=      5-min Rain = 0
KSW1 082113Z 35003KT 00/00 A3027 RMK A01 T00020002  RH  100%=      5-min Rain = 0
KSW1 082114Z 34002KT 00/00 A3027 RMK A01 T00020001  RH  100%=      5-min Rain = 0
KSW1 082115Z 35002KT 00/00 A3027 RMK A01 T00020001  RH  100%=      5-min Rain = 0
KSW1 082116Z 35003KT 00/00 A3027 RMK A01 T00020002  RH  100%=      5-min Rain = 0.01
KSW1 082117Z 35003KT 00/00 A3026 RMK A01 T00010001  RH  100%=      5-min Rain = 0
KSW1 082118Z 34003KT 00/00 A3026 RMK A01 T00010001  RH  100%=      5-min Rain = 0
KSW1 082119Z 35003KT 00/00 A3026 RMK A01 T00020002  RH  100%=      5-min Rain = 0
KSW1 082120Z 35003KT 00/00 A3026 RMK A01 T00020002  RH  100%=      5-min Rain = 0
KSW1 082121Z 36003KT 00/00 A3026 RMK A01 T00020002  RH  100%=      5-min Rain = 0
KSW1 082122Z 35003KT 00/00 A3026 RMK A01 T00020002  RH  100%=      5-min Rain = 0
KSW1 082123Z 34003KT 00/00 A3026 RMK A01 T00020002  RH  100%=      5-min Rain = 0
KSW1 082124Z 34003KT 00/00 A3026 RMK A01 T00020002  RH  100%=      5-min Rain = 0
KSW1 082125Z 35002KT 00/00 A3026 RMK A01 T00030002  RH  100%=      5-min Rain = 0
KSW1 082126Z 35003KT 00/00 A3026 RMK A01 T00030003  RH  100%=      5-min Rain = 0
KSW1 082127Z 35003KT 00/00 A3026 RMK A01 T00030003  RH  100%=      5-min Rain = 0.01
KSW1 082128Z 35003KT 00/00 A3026 RMK A01 T00030003  RH  100%=      5-min Rain = 0
KSW1 082129Z 35003KT 00/00 A3026 RMK A01 T00030003  RH  100%=      5-min Rain = 0
KSW1 082130Z 35003KT 00/00 A3026 RMK A01 T00030003  RH  100%=      5-min Rain = 0
KSW1 082131Z 35003KT 00/00 A3026 RMK A01 T00030003  RH  100%=      5-min Rain = 0
KSW1 082132Z 35003KT 00/00 A3026 RMK A01 T00030003  RH  100%=      5-min Rain = 0
KSW1 082133Z 34003KT 00/00 A3026 RMK A01 T00030003  RH  100%=      5-min Rain = 0
KSW1 082134Z 34003KT 00/00 A3026 RMK A01 T00040004  RH  100%=      5-min Rain = 0
KSW1 082135Z 35003KT 00/00 A3026 RMK A01 T00040004  RH  100%=      5-min Rain = 0
KSW1 082136Z 35003KT 01/01 A3026 RMK A01 T00050005  RH  100%=      5-min Rain = 0.01
KSW1 082137Z 35003KT 01/01 A3026 RMK A01 T00050005  RH  100%=      5-min Rain = 0
KSW1 082138Z 35003KT 01/01 A3026 RMK A01 T00050005  RH  100%=      5-min Rain = 0
KSW1 082139Z 35003KT 01/01 A3026 RMK A01 T00050005  RH  100%=      5-min Rain = 0
KSW1 082140Z 35003KT 01/01 A3026 RMK A01 T00050005  RH  100%=      5-min Rain = 0.01
KSW1 082141Z 35002KT 01/01 A3026 RMK A01 T00050005  RH  100%=      5-min Rain = 0
KSW1 082142Z 35003KT 01/01 A3026 RMK A01 T00050005  RH  100%=      5-min Rain = 0
KSW1 082143Z 35003KT 01/01 A3026 RMK A01 T00060006  RH  100%=      5-min Rain = 0
KSW1 082144Z 35003KT 01/01 A3026 RMK A01 T00050005  RH  100%=      5-min Rain = 0.01
KSW1 082145Z 35003KT 01/01 A3026 RMK A01 T00050005  RH  100%=      5-min Rain = 0
KSW1 082146Z 35003KT 01/01 A3026 RMK A01 T00050005  RH  100%=      5-min Rain = 0
KSW1 082147Z 35003KT 01/01 A3026 RMK A01 T00050005  RH  100%=      5-min Rain = 0.01
KSW1 082148Z 35002KT 01/01 A3026 RMK A01 T00050005  RH  100%=      5-min Rain = 0
KSW1 082149Z 35002KT 01/01 A3026 RMK A01 T00060006  RH  100%=      5-min Rain = 0
KSW1 082150Z 36002KT 01/01 A3025 RMK A01 T00070006  RH  100%=      5-min Rain = 0
KSW1 082151Z 35003KT 01/01 A3025 RMK A01 T00070007  RH  100%=      5-min Rain = 0.01
KSW1 082152Z 34003KT 01/01 A3025 RMK A01 T00070006  RH  100%=      5-min Rain = 0
KSW1 082153Z 35003KT 01/01 A3025 RMK A01 T00060006  RH  100%=      5-min Rain = 0
KSW1 082154Z 34003KT 01/01 A3025 RMK A01 T00060006  RH  100%=      5-min Rain = 0
KSW1 082155Z 35003KT 01/01 A3025 RMK A01 T00060006  RH  100%=      5-min Rain = 0.01
KSW1 082156Z 35003KT 01/01 A3026 RMK A01 T00060006  RH  100%=      5-min Rain = 0
KSW1 082157Z 00003KT 01/01 A3026 RMK A01 T00060006  RH  100%=      5-min Rain = 0
KSW1 082158Z 00003KT 01/01 A3026 RMK A01 T00060006  RH  100%=      5-min Rain = 0
KSW1 082159Z 00003KT 01/01 A3026 RMK A01 T00060006  RH  100%=      5-min Rain = 0.01
KSW1 082200Z 35004KT 01/01 A3025 RMK A01 T00060005  RH  100%=      5-min Rain = 0
KSW1 082201Z 35003KT 01/01 A3025 RMK A01 T00050005  RH  100%=      5-min Rain = 0
KSW1 082202Z 34003KT 01/01 A3025 RMK A01 T00060006  RH  100%=      5-min Rain = 0.01
KSW1 082203Z 35003KT 01/01 A3026 RMK A01 T00060006  RH  100%=      5-min Rain = 0
KSW1 082204Z 35003KT 01/01 A3026 RMK A01 T00060006  RH  100%=      5-min Rain = 0
KSW1 082205Z 35004KT 01/01 A3026 RMK A01 T00070006  RH  100%=      5-min Rain = 0
KSW1 082206Z 35004KT 01/01 A3026 RMK A01 T00060006  RH  100%=      5-min Rain = 0
KSW1 082207Z 35003KT 01/01 A3026 RMK A01 T00050005  RH  100%=      5-min Rain = 0
KSW1 082208Z 34004KT 01/01 A3026 RMK A01 T00050005  RH  100%=      5-min Rain = 0
KSW1 082209Z 35003KT 01/01 A3026 RMK A01 T00050005  RH  100%=      5-min Rain = 0
KSW1 082210Z 34003KT 01/01 A3026 RMK A01 T00050005  RH  100%=      5-min Rain = 0
KSW1 082211Z 34003KT 01/01 A3026 RMK A01 T00060006  RH  100%=      5-min Rain = 0
KSW1 082212Z 34003KT 01/01 A3026 RMK A01 T00060006  RH  100%=      5-min Rain = 0
KSW1 082213Z 34003KT 01/01 A3026 RMK A01 T00060006  RH  100%=      5-min Rain = 0
KSW1 082214Z 34003KT 01/01 A3026 RMK A01 T00060006  RH  100%=      5-min Rain = 0
KSW1 082215Z 33003KT 01/01 A3026 RMK A01 T00060005  RH  100%=      5-min Rain = 0
KSW1 082216Z 33003KT 01/01 A3026 RMK A01 T00060006  RH  100%=      5-min Rain = 0
KSW1 082217Z 34003KT 01/01 A3026 RMK A01 T00060006  RH  100%=      5-min Rain = 0
KSW1 082218Z 34003KT 01/01 A3026 RMK A01 T00060006  RH  100%=      5-min Rain = 0
KSW1 082219Z 34003KT 01/01 A3026 RMK A01 T00060006  RH  100%=      5-min Rain = 0
KSW1 082220Z 35003KT 01/01 A3026 RMK A01 T00060006  RH  100%=      5-min Rain = 0
KSW1 082221Z 34003KT 01/01 A3026 RMK A01 T00060006  RH  100%=      5-min Rain = 0
KSW1 082222Z 34003KT 01/01 A3026 RMK A01 T00060006  RH  100%=      5-min Rain = 0
KSW1 082223Z 34003KT 01/01 A3026 RMK A01 T00060006  RH  100%=      5-min Rain = 0
KSW1 082224Z 34003KT 01/01 A3026 RMK A01 T00060006  RH  100%=      5-min Rain = 0
KSW1 082225Z 34004KT 01/01 A3026 RMK A01 T00060006  RH  100%=      5-min Rain = 0
KSW1 082226Z 35003KT 01/01 A3026 RMK A01 T00050005  RH  100%=      5-min Rain = 0.01
KSW1 082227Z 35003KT 01/01 A3026 RMK A01 T00050005  RH  100%=      5-min Rain = 0
KSW1 082228Z 34003KT 00/00 A3026 RMK A01 T00040004  RH  100%=      5-min Rain = 0
KSW1 082229Z 34003KT 00/00 A3026 RMK A01 T00040004  RH  100%=      5-min Rain = 0
KSW1 082230Z 35003KT 00/00 A3026 RMK A01 T00040004  RH  100%=      5-min Rain = 0
KSW1 082231Z 34002KT 00/00 A3026 RMK A01 T00040004  RH  100%=      5-min Rain = 0
KSW1 082232Z 34002KT 00/00 A3026 RMK A01 T00040004  RH  100%=      5-min Rain = 0
KSW1 082233Z 35003KT 00/00 A3026 RMK A01 T00040004  RH  100%=      5-min Rain = 0
KSW1 082234Z 35003KT 00/00 A3026 RMK A01 T00040004  RH  100%=      5-min Rain = 0.01
KSW1 082235Z 34003KT 00/00 A3026 RMK A01 T00040004  RH  100%=      5-min Rain = 0
KSW1 082236Z 34003KT 00/00 A3026 RMK A01 T00040004  RH  100%=      5-min Rain = 0
KSW1 082237Z 34003KT 00/00 A3026 RMK A01 T00040004  RH  100%=      5-min Rain = 0
KSW1 082238Z 34002KT 00/00 A3026 RMK A01 T00040004  RH  100%=      5-min Rain = 0
KSW1 082239Z 35003KT 00/00 A3026 RMK A01 T00040004  RH  100%=      5-min Rain = 0
KSW1 082240Z 34003KT 00/00 A3026 RMK A01 T00040004  RH  100%=      5-min Rain = 0
KSW1 082241Z 34003KT 00/00 A3026 RMK A01 T00040004  RH  100%=      5-min Rain = 0
KSW1 082242Z 35002KT 00/00 A3026 RMK A01 T00040004  RH  100%=      5-min Rain = 0
KSW1 082243Z 35003KT 00/00 A3026 RMK A01 T00040004  RH  100%=      5-min Rain = 0
KSW1 082244Z 35003KT 00/00 A3026 RMK A01 T00040004  RH  100%=      5-min Rain = 0.01
KSW1 082245Z 35003KT 00/00 A3026 RMK A01 T00040004  RH  100%=      5-min Rain = 0
KSW1 082246Z 35003KT 00/00 A3026 RMK A01 T00040004  RH  100%=      5-min Rain = 0
KSW1 082247Z 35003KT 00/00 A3026 RMK A01 T00040004  RH  100%=      5-min Rain = 0
KSW1 082248Z 34003KT 00/00 A3026 RMK A01 T00030003  RH  100%=      5-min Rain = 0
KSW1 082249Z 35003KT 00/00 A3026 RMK A01 T00030003  RH  100%=      5-min Rain = 0
KSW1 082250Z 35003KT 00/00 A3026 RMK A01 T00030003  RH  100%=      5-min Rain = 0
KSW1 082251Z 35003KT 00/00 A3026 RMK A01 T00030003  RH  100%=      5-min Rain = 0
KSW1 082252Z 35003KT 00/00 A3026 RMK A01 T00030003  RH  100%=      5-min Rain = 0
KSW1 082253Z 35003KT 00/00 A3026 RMK A01 T00030003  RH  100%=      5-min Rain = 0
KSW1 082254Z 35003KT 00/00 A3026 RMK A01 T00030003  RH  100%=      5-min Rain = 0
KSW1 082255Z 35003KT 00/00 A3026 RMK A01 T00030003  RH  100%=      5-min Rain = 0
KSW1 082256Z 34003KT 00/00 A3026 RMK A01 T00030003  RH  100%=      5-min Rain = 0.01
KSW1 082257Z 35003KT 00/00 A3027 RMK A01 T00030003  RH  100%=      5-min Rain = 0
KSW1 082258Z 35003KT 00/00 A3027 RMK A01 T00030003  RH  100%=      5-min Rain = 0
KSW1 082259Z 35003KT 00/00 A3027 RMK A01 T00030003  RH  100%=      5-min Rain = 0
KSW1 082300Z 35003KT 00/00 A3027 RMK A01 T00030003  RH  100%=      5-min Rain = 0
KSW1 082301Z 36003KT 00/00 A3027 RMK A01 T00030003  RH  100%=      5-min Rain = 0
KSW1 082302Z 35003KT 00/00 A3027 RMK A01 T00030002  RH  100%=      5-min Rain = 0
KSW1 082303Z 35003KT 00/00 A3027 RMK A01 T00020002  RH  100%=      5-min Rain = 0
KSW1 082304Z 35003KT 00/00 A3027 RMK A01 T00020002  RH  100%=      5-min Rain = 0
KSW1 082305Z 34003KT 00/00 A3026 RMK A01 T00020002  RH  100%=      5-min Rain = 0
KSW1 082306Z 34003KT 00/00 A3026 RMK A01 T00020002  RH  100%=      5-min Rain = 0
KSW1 082307Z 34003KT 00/00 A3026 RMK A01 T00020002  RH  100%=      5-min Rain = 0
KSW1 082308Z 35003KT 00/00 A3026 RMK A01 T00020002  RH  100%=      5-min Rain = 0
KSW1 082309Z 35003KT 00/00 A3027 RMK A01 T00020002  RH  100%=      5-min Rain = 0
KSW1 082310Z 35003KT 00/00 A3027 RMK A01 T00020002  RH  100%=      5-min Rain = 0
KSW1 082311Z 34003KT 00/00 A3027 RMK A01 T00020002  RH  100%=      5-min Rain = 0
KSW1 082312Z 34002KT 00/00 A3027 RMK A01 T00020001  RH  100%=      5-min Rain = 0
KSW1 082313Z 34003KT 00/00 A3027 RMK A01 T00020001  RH  100%=      5-min Rain = 0
KSW1 082314Z 33003KT 00/00 A3027 RMK A01 T00020001  RH  100%=      5-min Rain = 0
KSW1 082315Z 34003KT 00/00 A3027 RMK A01 T00020002  RH  100%=      5-min Rain = 0
KSW1 082316Z 34002KT 00/00 A3027 RMK A01 T00020002  RH  100%=      5-min Rain = 0
KSW1 082317Z 34003KT 00/00 A3027 RMK A01 T00020002  RH  100%=      5-min Rain = 0
KSW1 082318Z 33003KT 00/00 A3027 RMK A01 T00020002  RH  100%=      5-min Rain = 0
KSW1 082319Z 34003KT 00/00 A3027 RMK A01 T00010001  RH  100%=      5-min Rain = 0
KSW1 082320Z 34003KT 00/00 A3027 RMK A01 T00020002  RH  100%=      5-min Rain = 0
KSW1 082321Z 35003KT 00/00 A3027 RMK A01 T00010001  RH  100%=      5-min Rain = 0.01
KSW1 082322Z 34003KT 00/00 A3027 RMK A01 T00010001  RH  100%=      5-min Rain = 0
KSW1 082323Z 34003KT 00/00 A3027 RMK A01 T00020001  RH  100%=      5-min Rain = 0
KSW1 082324Z 35004KT 00/00 A3027 RMK A01 T00020002  RH  100%=      5-min Rain = 0
KSW1 082325Z 34003KT 00/00 A3027 RMK A01 T00020001  RH  100%=      5-min Rain = 0
KSW1 082326Z 34003KT 00/00 A3027 RMK A01 T00010001  RH  100%=      5-min Rain = 0
KSW1 082327Z 34003KT 00/00 A3027 RMK A01 T00010001  RH  100%=      5-min Rain = 0
KSW1 082328Z 34003KT 00/00 A3027 RMK A01 T00010001  RH  100%=      5-min Rain = 0
KSW1 082329Z 34003KT 00/00 A3027 RMK A01 T00010001  RH  100%=      5-min Rain = 0
KSW1 082330Z 34003KT 00/00 A3027 RMK A01 T00010001  RH  100%=      5-min Rain = 0
KSW1 082331Z 34004KT 00/00 A3027 RMK A01 T00020001  RH  100%=      5-min Rain = 0
KSW1 082332Z 34003KT 00/00 A3027 RMK A01 T00010001  RH  100%=      5-min Rain = 0
KSW1 082333Z 33003KT 00/00 A3027 RMK A01 T00010001  RH  100%=      5-min Rain = 0
KSW1 082334Z 33003KT 00/00 A3027 RMK A01 T00010001  RH  100%=      5-min Rain = 0
KSW1 082335Z 33003KT 00/00 A3028 RMK A01 T00020001  RH  100%=      5-min Rain = 0
KSW1 082336Z 34003KT 00/00 A3028 RMK A01 T00010001  RH  100%=      5-min Rain = 0
KSW1 082337Z 33003KT 00/00 A3028 RMK A01 T00010001  RH  100%=      5-min Rain = 0
KSW1 082338Z 34002KT 00/00 A3028 RMK A01 T00010001  RH  100%=      5-min Rain = 0
KSW1 082339Z 35002KT 00/00 A3028 RMK A01 T00020002  RH  100%=      5-min Rain = 0
KSW1 082340Z 34003KT 00/00 A3028 RMK A01 T00020001  RH  100%=      5-min Rain = 0
KSW1 082341Z 34003KT 00/00 A3028 RMK A01 T00020002  RH  100%=      5-min Rain = 0
KSW1 082342Z 33002KT 00/00 A3028 RMK A01 T00020002  RH  100%=      5-min Rain = 0
KSW1 082343Z 33002KT 00/00 A3028 RMK A01 T00020002  RH  100%=      5-min Rain = 0
KSW1 082344Z 34003KT 00/00 A3028 RMK A01 T00020002  RH  100%=      5-min Rain = 0
KSW1 082345Z 33003KT 00/00 A3028 RMK A01 T00020002  RH  100%=      5-min Rain = 0
KSW1 082346Z 32003KT 00/00 A3028 RMK A01 T00020002  RH  100%=      5-min Rain = 0
KSW1 082347Z 32003KT 00/00 A3028 RMK A01 T00020002  RH  100%=      5-min Rain = 0
KSW1 082348Z 32003KT 00/00 A3028 RMK A01 T00020002  RH  100%=      5-min Rain = 0
KSW1 082349Z 33003KT 00/00 A3028 RMK A01 T00020002  RH  100%=      5-min Rain = 0
KSW1 082350Z 33002KT 00/00 A3028 RMK A01 T00010001  RH  100%=      5-min Rain = 0
KSW1 082351Z 33002KT 00/00 A3028 RMK A01 T00020002  RH  100%=      5-min Rain = 0
KSW1 082352Z 32003KT 00/00 A3028 RMK A01 T00010001  RH  100%=      5-min Rain = 0
KSW1 082353Z 32002KT 00/00 A3028 RMK A01 T00020002  RH  100%=      5-min Rain = 0
KSW1 082354Z 32003KT 00/00 A3028 RMK A01 T00020001  RH  100%=      5-min Rain = 0
KSW1 082355Z 31003KT 00/00 A3028 RMK A01 T00010001  RH  100%=      5-min Rain = 0
KSW1 082356Z 32003KT 00/00 A3028 RMK A01 T00010001  RH  100%=      5-min Rain = 0
KSW1 082357Z 33003KT 00/00 A3028 RMK A01 T00010001  RH  100%=      5-min Rain = 0
KSW1 082358Z 32003KT 00/00 A3028 RMK A01 T00010001  RH  100%=      5-min Rain = 0
KSW1 082359Z 32002KT 00/00 A3028 RMK A01 T00010001  RH  100%=      5-min Rain = 0
KSW1 090000Z 32002KT 00/00 A3028 RMK A01 T00010001  RH  100%=      5-min Rain = 0
KSW1 090001Z 33002KT 00/00 A3028 RMK A01 T00010001  RH  100%=      5-min Rain = 0
KSW1 090002Z 33003KT 00/00 A3028 RMK A01 T00010001  RH  100%=      5-min Rain = 0
KSW1 090003Z 32002KT 00/00 A3028 RMK A01 T00010001  RH  100%=      5-min Rain = 0
KSW1 090004Z 32002KT 00/00 A3028 RMK A01 T00000000  RH  100%=      5-min Rain = 0
KSW1 090005Z 33002KT 00/00 A3028 RMK A01 T00010001  RH  100%=      5-min Rain = 0
KSW1 090006Z 33002KT 00/00 A3028 RMK A01 T00010001  RH  100%=      5-min Rain = 0
KSW1 090007Z 31002KT 00/00 A3028 RMK A01 T00010000  RH  100%=      5-min Rain = 0
KSW1 090008Z 32002KT 00/00 A3028 RMK A01 T00000000  RH  100%=      5-min Rain = 0
KSW1 090009Z 33003KT 00/00 A3028 RMK A01 T00010001  RH  100%=      5-min Rain = 0
KSW1 090010Z 32003KT 00/00 A3028 RMK A01 T00000000  RH  100%=      5-min Rain = 0.01
KSW1 090011Z 32002KT 00/00 A3028 RMK A01 T00000000  RH  100%=      5-min Rain = 0
KSW1 090012Z 33002KT 00/00 A3028 RMK A01 T00-000-0  RH  100%=      5-min Rain = 0
KSW1 090013Z 33003KT 00/00 A3028 RMK A01 T000000-0  RH  100%=      5-min Rain = 0
KSW1 090014Z 32003KT 00/00 A3028 RMK A01 T00000000  RH  100%=      5-min Rain = 0
KSW1 090015Z 32003KT 00/00 A3028 RMK A01 T000000-0  RH  100%=      5-min Rain = 0
KSW1 090016Z 32003KT 00/00 A3028 RMK A01 T00-000-0  RH  100%=      5-min Rain = 0
KSW1 090017Z 32003KT 00/00 A3028 RMK A01 T00000000  RH  100%=      5-min Rain = 0
KSW1 090018Z 33002KT 00/00 A3028 RMK A01 T00-000-0  RH  100%=      5-min Rain = 0
KSW1 090019Z 33002KT 00/00 A3028 RMK A01 T00000000  RH  100%=      5-min Rain = 0
KSW1 090020Z 33002KT 00/00 A3028 RMK A01 T00000000  RH  100%=      5-min Rain = 0
KSW1 090021Z 32003KT 00/00 A3028 RMK A01 T000000-0  RH  100%=      5-min Rain = 0
KSW1 090022Z 33003KT 00/00 A3028 RMK A01 T00-000-0  RH  100%=      5-min Rain = 0
KSW1 090023Z 33003KT 00/00 A3028 RMK A01 T00-000-1  RH  100%=      5-min Rain = 0
KSW1 090024Z 32002KT 00/00 A3028 RMK A01 T00-000-1  RH  100%=      5-min Rain = 0
KSW1 090025Z 32003KT M00/M00 A3028 RMK A01 T10011001  RH  100%=      5-min Rain = 0
KSW1 090026Z 33003KT M00/M00 A3028 RMK A01 T10011001  RH  100%=      5-min Rain = 0
KSW1 090027Z 33002KT M00/M00 A3028 RMK A01 T10011001  RH  100%=      5-min Rain = 0
KSW1 090028Z 32002KT M00/M00 A3028 RMK A01 T10011001  RH  100%=      5-min Rain = 0
KSW1 090029Z 33002KT M00/M00 A3028 RMK A01 T10011001  RH  100%=      5-min Rain = 0
KSW1 090030Z 33002KT M00/M00 A3028 RMK A01 T10011001  RH  100%=      5-min Rain = 0
KSW1 090031Z 33002KT M00/M00 A3028 RMK A01 T10011001  RH  100%=      5-min Rain = 0
KSW1 090032Z 32002KT M00/M00 A3028 RMK A01 T10011002  RH  100%=      5-min Rain = 0
KSW1 090033Z 33002KT M00/M00 A3028 RMK A01 T10021002  RH  100%=      5-min Rain = 0
KSW1 090034Z 33002KT M00/M00 A3028 RMK A01 T10021002  RH  100%=      5-min Rain = 0
KSW1 090035Z 32002KT M00/M00 A3028 RMK A01 T10021002  RH  100%=      5-min Rain = 0
KSW1 090036Z 32002KT M00/M00 A3028 RMK A01 T10021002  RH  100%=      5-min Rain = 0
KSW1 090037Z 32002KT M00/M00 A3028 RMK A01 T10021002  RH  100%=      5-min Rain = 0
KSW1 090038Z 31002KT M00/M00 A3028 RMK A01 T10021002  RH  100%=      5-min Rain = 0
KSW1 090039Z 31002KT M00/M00 A3028 RMK A01 T10021002  RH  100%=      5-min Rain = 0
KSW1 090040Z 31002KT M00/M00 A3028 RMK A01 T10021002  RH  100%=      5-min Rain = 0
KSW1 090041Z 31002KT M00/M00 A3028 RMK A01 T10021003  RH  100%=      5-min Rain = 0
KSW1 090042Z 31002KT M00/M00 A3028 RMK A01 T10031003  RH  100%=      5-min Rain = 0
KSW1 090043Z 31002KT M00/M00 A3028 RMK A01 T10031003  RH  100%=      5-min Rain = 0
KSW1 090044Z 31002KT M00/M00 A3028 RMK A01 T10031003  RH  100%=      5-min Rain = 0
KSW1 090045Z 30002KT M00/M00 A3028 RMK A01 T10031003  RH  100%=      5-min Rain = 0
KSW1 090046Z 30002KT M00/M00 A3028 RMK A01 T10031003  RH  100%=      5-min Rain = 0
KSW1 090047Z 31003KT M00/M00 A3028 RMK A01 T10031003  RH  100%=      5-min Rain = 0
KSW1 090048Z 31002KT M00/M00 A3028 RMK A01 T10031003  RH  100%=      5-min Rain = 0
KSW1 090049Z 31002KT M00/M00 A3028 RMK A01 T10031003  RH  100%=      5-min Rain = 0
KSW1 090050Z 31002KT M00/M00 A3028 RMK A01 T10031003  RH  100%=      5-min Rain = 0
KSW1 090051Z 32002KT M00/M00 A3028 RMK A01 T10031003  RH  100%=      5-min Rain = 0
KSW1 090052Z 32002KT M00/M00 A3028 RMK A01 T10031003  RH  100%=      5-min Rain = 0
KSW1 090053Z 31003KT M00/M00 A3028 RMK A01 T10031003  RH  100%=      5-min Rain = 0
KSW1 090054Z 31003KT M00/M00 A3028 RMK A01 T10031003  RH  100%=      5-min Rain = 0
KSW1 090055Z 31002KT M00/M00 A3028 RMK A01 T10031003  RH  100%=      5-min Rain = 0
KSW1 090056Z 30002KT M00/M00 A3028 RMK A01 T10031003  RH  100%=      5-min Rain = 0
KSW1 090057Z 31002KT M00/M00 A3028 RMK A01 T10031003  RH  100%=      5-min Rain = 0
KSW1 090058Z 31002KT M00/M00 A3028 RMK A01 T10031003  RH  100%=      5-min Rain = 0
KSW1 090059Z 31002KT M00/M00 A3028 RMK A01 T10031003  RH  100%=      5-min Rain = 0
KSW1 090100Z 31002KT M00/M00 A3028 RMK A01 T10041004  RH  100%=      5-min Rain = 0
KSW1 090101Z 31002KT M00/M00 A3028 RMK A01 T10041004  RH  100%=      5-min Rain = 0
KSW1 090102Z 31002KT M00/M00 A3028 RMK A01 T10041004  RH  100%=      5-min Rain = 0
KSW1 090103Z 31002KT M00/M00 A3028 RMK A01 T10041004  RH  100%=      5-min Rain = 0
KSW1 090104Z 31002KT M00/M00 A3028 RMK A01 T10041004  RH  100%=      5-min Rain = 0
KSW1 090105Z 32002KT M00/M00 A3028 RMK A01 T10041004  RH  100%=      5-min Rain = 0
KSW1 090106Z 32002KT M00/M00 A3028 RMK A01 T10041004  RH  100%=      5-min Rain = 0
KSW1 090107Z 31002KT M00/M00 A3028 RMK A01 T10041004  RH  100%=      5-min Rain = 0
KSW1 090108Z 31002KT M00/M00 A3028 RMK A01 T10041004  RH  100%=      5-min Rain = 0
KSW1 090109Z 31002KT M00/M01 A3029 RMK A01 T10041005  RH  100%=      5-min Rain = 0
KSW1 090110Z 31002KT M00/M00 A3029 RMK A01 T10041004  RH  100%=      5-min Rain = 0
KSW1 090111Z 31002KT M01/M01 A3029 RMK A01 T10051005  RH  100%=      5-min Rain = 0
KSW1 090112Z 30002KT M01/M01 A3029 RMK A01 T10051005  RH  100%=      5-min Rain = 0
KSW1 090113Z 30002KT M00/M01 A3029 RMK A01 T10041005  RH  100%=      5-min Rain = 0
KSW1 090114Z 30002KT M01/M01 A3029 RMK A01 T10051005  RH  100%=      5-min Rain = 0
KSW1 090115Z 30002KT M01/M01 A3029 RMK A01 T10051005  RH  100%=      5-min Rain = 0
KSW1 090116Z 31002KT M01/M01 A3029 RMK A01 T10051005  RH  100%=      5-min Rain = 0
KSW1 090117Z 31002KT M01/M01 A3029 RMK A01 T10051005  RH  100%=      5-min Rain = 0
KSW1 090118Z 31002KT M01/M01 A3029 RMK A01 T10051005  RH  100%=      5-min Rain = 0
KSW1 090119Z 31002KT M01/M01 A3029 RMK A01 T10051005  RH  100%=      5-min Rain = 0
KSW1 090120Z 31002KT M01/M01 A3029 RMK A01 T10051005  RH  100%=      5-min Rain = 0
KSW1 090121Z 32001KT M01/M01 A3029 RMK A01 T10051005  RH  100%=      5-min Rain = 0
KSW1 090122Z 31002KT M01/M01 A3029 RMK A01 T10051005  RH  100%=      5-min Rain = 0
KSW1 090123Z 31002KT M01/M01 A3029 RMK A01 T10051005  RH  100%=      5-min Rain = 0
KSW1 090124Z 31001KT M01/M01 A3029 RMK A01 T10051005  RH  100%=      5-min Rain = 0
KSW1 090125Z 30002KT M01/M01 A3029 RMK A01 T10051005  RH  100%=      5-min Rain = 0
KSW1 090126Z 30001KT M01/M01 A3029 RMK A01 T10051005  RH  100%=      5-min Rain = 0
KSW1 090127Z 28001KT M01/M01 A3029 RMK A01 T10051006  RH  100%=      5-min Rain = 0
KSW1 090128Z 28001KT M01/M01 A3029 RMK A01 T10061006  RH  100%=      5-min Rain = 0
KSW1 090129Z 29001KT M01/M01 A3029 RMK A01 T10061006  RH  100%=      5-min Rain = 0
KSW1 090130Z 29001KT M01/M01 A3029 RMK A01 T10061007  RH  100%=      5-min Rain = 0
KSW1 090131Z 29001KT M01/M01 A3029 RMK A01 T10061006  RH  100%=      5-min Rain = 0
KSW1 090132Z 29001KT M01/M01 A3029 RMK A01 T10061006  RH  100%=      5-min Rain = 0
KSW1 090133Z 29001KT M01/M01 A3029 RMK A01 T10071007  RH  100%=      5-min Rain = 0
KSW1 090134Z 29001KT M01/M01 A3029 RMK A01 T10071007  RH  100%=      5-min Rain = 0
KSW1 090135Z 28001KT M01/M01 A3029 RMK A01 T10071007  RH  100%=      5-min Rain = 0
KSW1 090136Z 28001KT M01/M01 A3029 RMK A01 T10071007  RH  100%=      5-min Rain = 0
KSW1 090137Z 29001KT M01/M01 A3029 RMK A01 T10071007  RH  100%=      5-min Rain = 0
KSW1 090138Z 29001KT M01/M01 A3029 RMK A01 T10071007  RH  100%=      5-min Rain = 0
KSW1 090139Z 29001KT M01/M01 A3029 RMK A01 T10071007  RH  100%=      5-min Rain = 0
KSW1 090140Z 29001KT M01/M01 A3029 RMK A01 T10081008  RH  100%=      5-min Rain = 0
KSW1 090141Z 30001KT M01/M01 A3029 RMK A01 T10081008  RH  100%=      5-min Rain = 0
KSW1 090142Z 30001KT M01/M01 A3029 RMK A01 T10081008  RH  100%=      5-min Rain = 0
KSW1 090143Z 30001KT M01/M01 A3029 RMK A01 T10081008  RH  100%=      5-min Rain = 0
KSW1 090144Z 31001KT M01/M01 A3029 RMK A01 T10081008  RH  100%=      5-min Rain = 0
KSW1 090145Z 31001KT M01/M01 A3029 RMK A01 T10081008  RH  100%=      5-min Rain = 0
KSW1 090146Z 32001KT M01/M01 A3029 RMK A01 T10081008  RH  100%=      5-min Rain = 0
KSW1 090147Z 32001KT M01/M01 A3029 RMK A01 T10081008  RH  100%=      5-min Rain = 0
KSW1 090148Z 32001KT M01/M01 A3029 RMK A01 T10091009  RH  100%=      5-min Rain = 0
KSW1 090149Z 33001KT M01/M01 A3029 RMK A01 T10091009  RH  100%=      5-min Rain = 0
KSW1 090150Z 33001KT M01/M01 A3029 RMK A01 T10091009  RH  100%=      5-min Rain = 0
KSW1 090151Z 33001KT M01/M01 A3029 RMK A01 T10091009  RH  100%=      5-min Rain = 0
KSW1 090152Z 34001KT M01/M01 A3029 RMK A01 T10091009  RH  100%=      5-min Rain = 0
KSW1 090153Z 34001KT M01/M01 A3029 RMK A01 T10091010  RH  100%=      5-min Rain = 0
KSW1 090154Z 34001KT M01/M01 A3029 RMK A01 T10091010  RH  100%=      5-min Rain = 0
KSW1 090155Z 34001KT M01/M01 A303 RMK A01 T10101010  RH  100%=      5-min Rain = 0
KSW1 090156Z 34001KT M01/M01 A303 RMK A01 T10101010  RH  100%=      5-min Rain = 0
KSW1 090157Z 33001KT M01/M01 A303 RMK A01 T10091009  RH  100%=      5-min Rain = 0
KSW1 090158Z 33001KT M01/M01 A303 RMK A01 T10101010  RH  100%=      5-min Rain = 0
KSW1 090159Z 32001KT M01/M01 A303 RMK A01 T10091010  RH  100%=      5-min Rain = 0
KSW1 090200Z 32001KT M01/M01 A303 RMK A01 T10101010  RH  100%=      5-min Rain = 0
KSW1 090201Z 32001KT M01/M01 A303 RMK A01 T10101010  RH  100%=      5-min Rain = 0
KSW1 090202Z 31001KT M01/M01 A303 RMK A01 T10101010  RH  100%=      5-min Rain = 0
KSW1 090203Z 31001KT M01/M01 A303 RMK A01 T10101010  RH  100%=      5-min Rain = 0
KSW1 090204Z 31001KT M01/M01 A303 RMK A01 T10101011  RH  100%=      5-min Rain = 0
KSW1 090205Z 31001KT M01/M01 A303 RMK A01 T10111011  RH  100%=      5-min Rain = 0
KSW1 090206Z 31001KT M01/M01 A303 RMK A01 T10111011  RH  100%=      5-min Rain = 0
KSW1 090207Z 31001KT M01/M01 A303 RMK A01 T10111011  RH  100%=      5-min Rain = 0
KSW1 090208Z 31001KT M01/M01 A303 RMK A01 T10101010  RH  100%=      5-min Rain = 0
KSW1 090209Z 31001KT M01/M01 A303 RMK A01 T10101010  RH  100%=      5-min Rain = 0
KSW1 090210Z 31001KT M01/M01 A303 RMK A01 T10101010  RH  100%=      5-min Rain = 0
KSW1 090211Z 31001KT M01/M01 A303 RMK A01 T10101010  RH  100%=      5-min Rain = 0
KSW1 090212Z 31001KT M01/M01 A303 RMK A01 T10101010  RH  100%=      5-min Rain = 0
KSW1 090213Z 31001KT M01/M01 A303 RMK A01 T10091010  RH  100%=      5-min Rain = 0
KSW1 090214Z 31001KT M01/M01 A303 RMK A01 T10091009  RH  100%=      5-min Rain = 0
KSW1 090215Z 31001KT M01/M01 A303 RMK A01 T10081008  RH  100%=      5-min Rain = 0
KSW1 090216Z 31001KT M01/M01 A303 RMK A01 T10081008  RH  100%=      5-min Rain = 0
KSW1 090217Z 32001KT M01/M01 A303 RMK A01 T10081008  RH  100%=      5-min Rain = 0
KSW1 090218Z 32001KT M01/M01 A303 RMK A01 T10091009  RH  100%=      5-min Rain = 0
KSW1 090219Z 33001KT M01/M01 A303 RMK A01 T10091009  RH  100%=      5-min Rain = 0
KSW1 090220Z 32001KT M01/M01 A303 RMK A01 T10091009  RH  100%=      5-min Rain = 0
KSW1 090221Z 32001KT M01/M01 A303 RMK A01 T10091009  RH  100%=      5-min Rain = 0
KSW1 090222Z 32001KT M01/M01 A303 RMK A01 T10091009  RH  100%=      5-min Rain = 0
KSW1 090223Z 32001KT M01/M01 A303 RMK A01 T10081008  RH  100%=      5-min Rain = 0
KSW1 090224Z 32001KT M01/M01 A303 RMK A01 T10081008  RH  100%=      5-min Rain = 0
KSW1 090225Z 32001KT M01/M01 A303 RMK A01 T10081008  RH  100%=      5-min Rain = 0
KSW1 090226Z 33001KT M01/M01 A303 RMK A01 T10081008  RH  100%=      5-min Rain = 0
KSW1 090227Z 33001KT M01/M01 A303 RMK A01 T10081009  RH  100%=      5-min Rain = 0
KSW1 090228Z 33001KT M01/M01 A303 RMK A01 T10091009  RH  100%=      5-min Rain = 0
KSW1 090229Z 32001KT M01/M01 A303 RMK A01 T10091009  RH  100%=      5-min Rain = 0
KSW1 090230Z 33002KT M01/M01 A303 RMK A01 T10081008  RH  100%=      5-min Rain = 0
KSW1 090231Z 33001KT M01/M01 A303 RMK A01 T10081008  RH  100%=      5-min Rain = 0
KSW1 090232Z 33002KT M01/M01 A303 RMK A01 T10081008  RH  100%=      5-min Rain = 0
KSW1 090233Z 32002KT M01/M01 A303 RMK A01 T10081008  RH  100%=      5-min Rain = 0
KSW1 090234Z 33002KT M01/M01 A303 RMK A01 T10081008  RH  100%=      5-min Rain = 0
KSW1 090235Z 33002KT M01/M01 A303 RMK A01 T10071007  RH  100%=      5-min Rain = 0
KSW1 090236Z 32002KT M01/M01 A303 RMK A01 T10071007  RH  100%=      5-min Rain = 0
KSW1 090237Z 32002KT M01/M01 A303 RMK A01 T10071007  RH  100%=      5-min Rain = 0
KSW1 090238Z 32002KT M01/M01 A303 RMK A01 T10071007  RH  100%=      5-min Rain = 0
KSW1 090239Z 33002KT M01/M01 A303 RMK A01 T10071007  RH  100%=      5-min Rain = 0
KSW1 090240Z 32002KT M01/M01 A303 RMK A01 T10071007  RH  100%=      5-min Rain = 0
KSW1 090241Z 33002KT M01/M01 A303 RMK A01 T10071007  RH  100%=      5-min Rain = 0
KSW1 090242Z 33002KT M01/M01 A303 RMK A01 T10071007  RH  100%=      5-min Rain = 0
KSW1 090243Z 33002KT M01/M01 A303 RMK A01 T10071007  RH  100%=      5-min Rain = 0
KSW1 090244Z 33002KT M01/M01 A303 RMK A01 T10071007  RH  100%=      5-min Rain = 0
KSW1 090245Z 33002KT M01/M01 A303 RMK A01 T10071007  RH  100%=      5-min Rain = 0
KSW1 090246Z 33002KT M01/M01 A303 RMK A01 T10071007  RH  100%=      5-min Rain = 0
KSW1 090247Z 33002KT M01/M01 A303 RMK A01 T10071007  RH  100%=      5-min Rain = 0
KSW1 090248Z 32002KT M01/M01 A303 RMK A01 T10071007  RH  100%=      5-min Rain = 0
KSW1 090249Z 32002KT M01/M01 A303 RMK A01 T10071007  RH  100%=      5-min Rain = 0
KSW1 090250Z 32002KT M01/M01 A303 RMK A01 T10071007  RH  100%=      5-min Rain = 0
KSW1 090251Z 32002KT M01/M01 A303 RMK A01 T10071007  RH  100%=      5-min Rain = 0
KSW1 090252Z 32002KT M01/M01 A303 RMK A01 T10071007  RH  100%=      5-min Rain = 0
KSW1 090253Z 32002KT M01/M01 A3031 RMK A01 T10071007  RH  100%=      5-min Rain = 0
KSW1 090254Z 32002KT M01/M01 A3031 RMK A01 T10071007  RH  100%=      5-min Rain = 0
KSW1 090255Z 32002KT M01/M01 A3031 RMK A01 T10071007  RH  100%=      5-min Rain = 0
KSW1 090256Z 32002KT M01/M01 A3031 RMK A01 T10061006  RH  100%=      5-min Rain = 0
KSW1 090257Z 32002KT M01/M01 A3031 RMK A01 T10061006  RH  100%=      5-min Rain = 0
KSW1 090258Z 32002KT M01/M01 A3031 RMK A01 T10061006  RH  100%=      5-min Rain = 0
KSW1 090259Z 32002KT M01/M01 A3031 RMK A01 T10061006  RH  100%=      5-min Rain = 0
KSW1 090300Z 31002KT M01/M01 A3031 RMK A01 T10061006  RH  100%=      5-min Rain = 0
KSW1 090301Z 32002KT M01/M01 A3031 RMK A01 T10061006  RH  100%=      5-min Rain = 0
KSW1 090302Z 32002KT M01/M01 A3031 RMK A01 T10061006  RH  100%=      5-min Rain = 0
KSW1 090303Z 32002KT M01/M01 A3031 RMK A01 T10061006  RH  100%=      5-min Rain = 0
KSW1 090304Z 32002KT M01/M01 A3031 RMK A01 T10051006  RH  100%=      5-min Rain = 0
KSW1 090305Z 32002KT M01/M01 A3031 RMK A01 T10051005  RH  100%=      5-min Rain = 0
KSW1 090306Z 32002KT M01/M01 A3031 RMK A01 T10051005  RH  100%=      5-min Rain = 0
KSW1 090307Z 33002KT M01/M01 A3031 RMK A01 T10051005  RH  100%=      5-min Rain = 0
KSW1 090308Z 33002KT M01/M01 A3031 RMK A01 T10051006  RH  100%=      5-min Rain = 0
KSW1 090309Z 32002KT M01/M01 A3031 RMK A01 T10051005  RH  100%=      5-min Rain = 0
KSW1 090310Z 32002KT M01/M01 A3031 RMK A01 T10051006  RH  100%=      5-min Rain = 0
KSW1 090311Z 32002KT M01/M01 A3031 RMK A01 T10051005  RH  100%=      5-min Rain = 0
KSW1 090312Z 33002KT M01/M01 A3031 RMK A01 T10051005  RH  100%=      5-min Rain = 0
KSW1 090313Z 33002KT M01/M01 A3031 RMK A01 T10061006  RH  100%=      5-min Rain = 0
KSW1 090314Z 33002KT M01/M01 A3031 RMK A01 T10061006  RH  100%=      5-min Rain = 0
KSW1 090315Z 33002KT M01/M01 A3031 RMK A01 T10061006  RH  100%=      5-min Rain = 0
KSW1 090316Z 33002KT M01/M01 A3031 RMK A01 T10061006  RH  100%=      5-min Rain = 0
KSW1 090317Z 32002KT M01/M01 A3031 RMK A01 T10061006  RH  100%=      5-min Rain = 0
KSW1 090318Z 33002KT M01/M01 A3031 RMK A01 T10061006  RH  100%=      5-min Rain = 0
KSW1 090319Z 33002KT M01/M01 A3031 RMK A01 T10061006  RH  100%=      5-min Rain = 0
KSW1 090320Z 33002KT M01/M01 A3031 RMK A01 T10071007  RH  100%=      5-min Rain = 0
KSW1 090321Z 33002KT M01/M01 A303 RMK A01 T10071007  RH  100%=      5-min Rain = 0
KSW1 090322Z 33002KT M01/M01 A303 RMK A01 T10071007  RH  100%=      5-min Rain = 0
KSW1 090323Z 33002KT M01/M01 A303 RMK A01 T10071007  RH  100%=      5-min Rain = 0
KSW1 090324Z 33002KT M01/M01 A303 RMK A01 T10071008  RH  100%=      5-min Rain = 0
KSW1 090325Z 33002KT M01/M01 A3031 RMK A01 T10081008  RH  100%=      5-min Rain = 0
KSW1 090326Z 33002KT M01/M01 A3031 RMK A01 T10081008  RH  100%=      5-min Rain = 0
KSW1 090327Z 33002KT M01/M01 A3031 RMK A01 T10081008  RH  100%=      5-min Rain = 0
KSW1 090328Z 33002KT M01/M01 A3031 RMK A01 T10081008  RH  100%=      5-min Rain = 0
KSW1 090329Z 33002KT M01/M01 A3031 RMK A01 T10091009  RH  100%=      5-min Rain = 0
KSW1 090330Z 33002KT M01/M01 A3031 RMK A01 T10091009  RH  100%=      5-min Rain = 0
KSW1 090331Z 33002KT M01/M01 A3031 RMK A01 T10091009  RH  100%=      5-min Rain = 0
KSW1 090332Z 33002KT M01/M01 A3031 RMK A01 T10091009  RH  100%=      5-min Rain = 0
KSW1 090333Z 33002KT M01/M01 A3031 RMK A01 T10091009  RH  100%=      5-min Rain = 0
KSW1 090334Z 33002KT M01/M01 A3031 RMK A01 T10091009  RH  100%=      5-min Rain = 0
KSW1 090335Z 32002KT M01/M01 A3031 RMK A01 T10091009  RH  100%=      5-min Rain = 0
KSW1 090336Z 32002KT M01/M01 A3031 RMK A01 T10091009  RH  100%=      5-min Rain = 0
KSW1 090337Z 32002KT M01/M01 A3031 RMK A01 T10091009  RH  100%=      5-min Rain = 0
KSW1 090338Z 32002KT M01/M01 A3031 RMK A01 T10081008  RH  100%=      5-min Rain = 0
KSW1 090339Z 32002KT M01/M01 A3031 RMK A01 T10081008  RH  100%=      5-min Rain = 0
KSW1 090340Z 32002KT M01/M01 A3031 RMK A01 T10081008  RH  100%=      5-min Rain = 0
KSW1 090341Z 32002KT M01/M01 A3031 RMK A01 T10081008  RH  100%=      5-min Rain = 0
KSW1 090342Z 32002KT M01/M01 A3031 RMK A01 T10081008  RH  100%=      5-min Rain = 0
KSW1 090343Z 32002KT M01/M01 A3031 RMK A01 T10081008  RH  100%=      5-min Rain = 0
KSW1 090344Z 32002KT M01/M01 A3031 RMK A01 T10081008  RH  100%=      5-min Rain = 0
KSW1 090345Z 32002KT M01/M01 A3031 RMK A01 T10081008  RH  100%=      5-min Rain = 0
KSW1 090346Z 32002KT M01/M01 A3031 RMK A01 T10081008  RH  100%=      5-min Rain = 0
KSW1 090347Z 32002KT M01/M01 A3031 RMK A01 T10081008  RH  100%=      5-min Rain = 0
KSW1 090348Z 32002KT M01/M01 A3031 RMK A01 T10091009  RH  100%=      5-min Rain = 0
KSW1 090349Z 32002KT M01/M01 A3031 RMK A01 T10091009  RH  100%=      5-min Rain = 0
KSW1 090350Z 32002KT M01/M01 A3031 RMK A01 T10091009  RH  100%=      5-min Rain = 0
KSW1 090351Z 32002KT M01/M01 A3031 RMK A01 T10091009  RH  100%=      5-min Rain = 0
KSW1 090352Z 32002KT M01/M01 A3031 RMK A01 T10091009  RH  100%=      5-min Rain = 0
KSW1 090353Z 32002KT M01/M01 A3031 RMK A01 T10101010  RH  100%=      5-min Rain = 0
KSW1 090354Z 32002KT M01/M01 A3031 RMK A01 T10091010  RH  100%=      5-min Rain = 0
KSW1 090355Z 32002KT M01/M01 A3031 RMK A01 T10101010  RH  100%=      5-min Rain = 0
KSW1 090356Z 32002KT M01/M01 A3031 RMK A01 T10101010  RH  100%=      5-min Rain = 0
KSW1 090357Z 32002KT M01/M01 A3031 RMK A01 T10101010  RH  100%=      5-min Rain = 0
KSW1 090358Z 32002KT M01/M01 A3031 RMK A01 T10101010  RH  100%=      5-min Rain = 0
KSW1 090359Z 32002KT M01/M01 A3031 RMK A01 T10101010  RH  100%=      5-min Rain = 0
KSW1 090400Z 32002KT M01/M01 A3031 RMK A01 T10101010  RH  100%=      5-min Rain = 0
KSW1 090401Z 32002KT M01/M01 A3031 RMK A01 T10091010  RH  100%=      5-min Rain = 0
KSW1 090402Z 32002KT M01/M01 A3031 RMK A01 T10101010  RH  100%=      5-min Rain = 0
KSW1 090403Z 32002KT M01/M01 A3031 RMK A01 T10091009  RH  100%=      5-min Rain = 0
KSW1 090404Z 32002KT M01/M01 A3031 RMK A01 T10091009  RH  100%=      5-min Rain = 0
KSW1 090405Z 32002KT M01/M01 A3031 RMK A01 T10091009  RH  100%=      5-min Rain = 0
KSW1 090406Z 32002KT M01/M01 A3031 RMK A01 T10091009  RH  100%=      5-min Rain = 0
KSW1 090407Z 32002KT M01/M01 A3031 RMK A01 T10091009  RH  100%=      5-min Rain = 0
KSW1 090408Z 32002KT M01/M01 A3031 RMK A01 T10091009  RH  100%=      5-min Rain = 0
KSW1 090409Z 32002KT M01/M01 A3031 RMK A01 T10091009  RH  100%=      5-min Rain = 0
KSW1 090410Z 32002KT M01/M01 A3031 RMK A01 T10091009  RH  100%=      5-min Rain = 0
KSW1 090411Z 31002KT M01/M01 A3031 RMK A01 T10091009  RH  100%=      5-min Rain = 0
KSW1 090412Z 31002KT M01/M01 A3031 RMK A01 T10091009  RH  100%=      5-min Rain = 0
KSW1 090413Z 31002KT M01/M01 A3031 RMK A01 T10091009  RH  100%=      5-min Rain = 0
KSW1 090414Z 31002KT M01/M01 A3031 RMK A01 T10101010  RH  100%=      5-min Rain = 0
KSW1 090415Z 31002KT M01/M01 A3031 RMK A01 T10091009  RH  100%=      5-min Rain = 0
KSW1 090416Z 31002KT M01/M01 A3031 RMK A01 T10101010  RH  100%=      5-min Rain = 0
KSW1 090417Z 31002KT M01/M01 A3031 RMK A01 T10091010  RH  100%=      5-min Rain = 0
KSW1 090418Z 30002KT M01/M01 A3031 RMK A01 T10101010  RH  100%=      5-min Rain = 0
KSW1 090419Z 30002KT M01/M01 A3031 RMK A01 T10101010  RH  100%=      5-min Rain = 0
KSW1 090420Z 30002KT M01/M01 A3031 RMK A01 T10101010  RH  100%=      5-min Rain = 0
KSW1 090421Z 30002KT M01/M01 A3031 RMK A01 T10101011  RH  100%=      5-min Rain = 0
KSW1 090422Z 30002KT M01/M01 A3031 RMK A01 T10101010  RH  100%=      5-min Rain = 0
KSW1 090423Z 30002KT M01/M01 A3031 RMK A01 T10101010  RH  100%=      5-min Rain = 0
KSW1 090424Z 30002KT M01/M01 A3031 RMK A01 T10101010  RH  100%=      5-min Rain = 0
KSW1 090425Z 30002KT M01/M01 A3031 RMK A01 T10101010  RH  100%=      5-min Rain = 0
KSW1 090426Z 30002KT M01/M01 A3031 RMK A01 T10101010  RH  100%=      5-min Rain = 0
KSW1 090427Z 30002KT M01/M01 A3031 RMK A01 T10101010  RH  100%=      5-min Rain = 0
KSW1 090428Z 30002KT M01/M01 A3031 RMK A01 T10101010  RH  100%=      5-min Rain = 0
KSW1 090429Z 31002KT M01/M01 A3031 RMK A01 T10101010  RH  100%=      5-min Rain = 0
KSW1 090430Z 31002KT M01/M01 A3031 RMK A01 T10101010  RH  100%=      5-min Rain = 0
KSW1 090431Z 31002KT M01/M01 A3031 RMK A01 T10091009  RH  100%=      5-min Rain = 0
KSW1 090432Z 31002KT M01/M01 A3031 RMK A01 T10091010  RH  100%=      5-min Rain = 0
KSW1 090433Z 31002KT M01/M01 A3031 RMK A01 T10091010  RH  100%=      5-min Rain = 0
KSW1 090434Z 31002KT M01/M01 A3031 RMK A01 T10091009  RH  100%=      5-min Rain = 0
KSW1 090435Z 31002KT M01/M01 A3031 RMK A01 T10091009  RH  100%=      5-min Rain = 0
KSW1 090436Z 31002KT M01/M01 A3031 RMK A01 T10091009  RH  100%=      5-min Rain = 0
KSW1 090437Z 31002KT M01/M01 A3031 RMK A01 T10081008  RH  100%=      5-min Rain = 0
KSW1 090438Z 31002KT M01/M01 A3031 RMK A01 T10091009  RH  100%=      5-min Rain = 0
KSW1 090439Z 31002KT M01/M01 A3031 RMK A01 T10091009  RH  100%=      5-min Rain = 0
KSW1 090440Z 31002KT M01/M01 A3031 RMK A01 T10091009  RH  100%=      5-min Rain = 0
KSW1 090441Z 31002KT M01/M01 A3031 RMK A01 T10091009  RH  100%=      5-min Rain = 0
KSW1 090442Z 31002KT M01/M01 A3031 RMK A01 T10091009  RH  100%=      5-min Rain = 0
KSW1 090443Z 31002KT M01/M01 A3031 RMK A01 T10091009  RH  100%=      5-min Rain = 0
KSW1 090444Z 31002KT M01/M01 A3031 RMK A01 T10091009  RH  100%=      5-min Rain = 0
KSW1 090445Z 31002KT M01/M01 A3031 RMK A01 T10081008  RH  100%=      5-min Rain = 0
KSW1 090446Z 31002KT M01/M01 A3031 RMK A01 T10091009  RH  100%=      5-min Rain = 0
KSW1 090447Z 31002KT M01/M01 A3031 RMK A01 T10091009  RH  100%=      5-min Rain = 0
KSW1 090448Z 30002KT M01/M01 A3031 RMK A01 T10091009  RH  100%=      5-min Rain = 0
KSW1 090449Z 30002KT M01/M01 A3031 RMK A01 T10091010  RH  100%=      5-min Rain = 0
KSW1 090450Z 30002KT M01/M01 A3031 RMK A01 T10101010  RH  100%=      5-min Rain = 0
KSW1 090451Z 30002KT M01/M01 A3032 RMK A01 T10101010  RH  100%=      5-min Rain = 0
KSW1 090452Z 30002KT M01/M01 A3032 RMK A01 T10101010  RH  100%=      5-min Rain = 0
KSW1 090453Z 31002KT M01/M01 A3032 RMK A01 T10101011  RH  100%=      5-min Rain = 0
KSW1 090454Z 31002KT M01/M01 A3031 RMK A01 T10101010  RH  100%=      5-min Rain = 0
KSW1 090455Z 31002KT M01/M01 A3031 RMK A01 T10111011  RH  100%=      5-min Rain = 0
KSW1 090456Z 31002KT M01/M01 A3031 RMK A01 T10101011  RH  100%=      5-min Rain = 0
KSW1 090457Z 31002KT M01/M01 A3031 RMK A01 T10101010  RH  100%=      5-min Rain = 0
KSW1 090458Z 31002KT M01/M01 A3031 RMK A01 T10101010  RH  100%=      5-min Rain = 0
KSW1 090459Z 31002KT M01/M01 A3031 RMK A01 T10111011  RH  100%=      5-min Rain = 0
KSW1 090500Z 31002KT M01/M01 A3031 RMK A01 T10111011  RH  100%=      5-min Rain = 0
KSW1 090501Z 31002KT M01/M01 A3031 RMK A01 T10111011  RH  100%=      5-min Rain = 0
KSW1 090502Z 31002KT M01/M01 A3031 RMK A01 T10101010  RH  100%=      5-min Rain = 0
KSW1 090503Z 30002KT M01/M01 A3031 RMK A01 T10101011  RH  100%=      5-min Rain = 0
KSW1 090504Z 30002KT M01/M01 A3031 RMK A01 T10111011  RH  100%=      5-min Rain = 0
KSW1 090505Z 30002KT M01/M01 A3032 RMK A01 T10111011  RH  100%=      5-min Rain = 0
KSW1 090506Z 30002KT M01/M01 A3032 RMK A01 T10111011  RH  100%=      5-min Rain = 0
KSW1 090507Z 30002KT M01/M01 A3031 RMK A01 T10111011  RH  100%=      5-min Rain = 0
KSW1 090508Z 30002KT M01/M01 A3031 RMK A01 T10111011  RH  100%=      5-min Rain = 0
KSW1 090509Z 31002KT M01/M01 A3031 RMK A01 T10111011  RH  100%=      5-min Rain = 0
KSW1 090510Z 30002KT M01/M01 A3031 RMK A01 T10111011  RH  100%=      5-min Rain = 0
KSW1 090511Z 30002KT M01/M01 A3031 RMK A01 T10111011  RH  100%=      5-min Rain = 0
KSW1 090512Z 30002KT M01/M01 A3031 RMK A01 T10111011  RH  100%=      5-min Rain = 0
KSW1 090513Z 30002KT M01/M01 A3032 RMK A01 T10111011  RH  100%=      5-min Rain = 0
KSW1 090514Z 30002KT M01/M01 A3032 RMK A01 T10111011  RH  100%=      5-min Rain = 0
KSW1 090515Z 30002KT M01/M01 A3032 RMK A01 T10111011  RH  100%=      5-min Rain = 0
KSW1 090516Z 29002KT M01/M01 A3032 RMK A01 T10111011  RH  100%=      5-min Rain = 0
KSW1 090517Z 29002KT M01/M01 A3032 RMK A01 T10111011  RH  100%=      5-min Rain = 0
KSW1 090518Z 29002KT M01/M01 A3032 RMK A01 T10111011  RH  100%=      5-min Rain = 0
KSW1 090519Z 29002KT M01/M01 A3031 RMK A01 T10111011  RH  100%=      5-min Rain = 0
KSW1 090520Z 30002KT M01/M01 A3031 RMK A01 T10111011  RH  100%=      5-min Rain = 0
KSW1 090521Z 30002KT M01/M01 A3031 RMK A01 T10111011  RH  100%=      5-min Rain = 0
KSW1 090522Z 30002KT M01/M01 A3031 RMK A01 T10111011  RH  100%=      5-min Rain = 0
KSW1 090523Z 30002KT M01/M01 A3031 RMK A01 T10111011  RH  100%=      5-min Rain = 0
KSW1 090524Z 31002KT M01/M01 A3031 RMK A01 T10111011  RH  100%=      5-min Rain = 0
KSW1 090525Z 31002KT M01/M01 A3031 RMK A01 T10111011  RH  100%=      5-min Rain = 0
KSW1 090526Z 31002KT M01/M01 A3031 RMK A01 T10111011  RH  100%=      5-min Rain = 0
KSW1 090527Z 32002KT M01/M01 A3031 RMK A01 T10101010  RH  100%=      5-min Rain = 0
KSW1 090528Z 32002KT M01/M01 A3031 RMK A01 T10101010  RH  100%=      5-min Rain = 0
KSW1 090529Z 32002KT M01/M01 A3031 RMK A01 T10091009  RH  100%=      5-min Rain = 0
KSW1 090530Z 32002KT M01/M01 A3031 RMK A01 T10091009  RH  100%=      5-min Rain = 0
KSW1 090531Z 32002KT M01/M01 A3031 RMK A01 T10081008  RH  100%=      5-min Rain = 0
KSW1 090532Z 32002KT M01/M01 A3031 RMK A01 T10081008  RH  100%=      5-min Rain = 0
KSW1 090533Z 32002KT M01/M01 A3031 RMK A01 T10081008  RH  100%=      5-min Rain = 0
KSW1 090534Z 32002KT M01/M01 A3031 RMK A01 T10081008  RH  100%=      5-min Rain = 0
KSW1 090535Z 32002KT M01/M01 A3031 RMK A01 T10081008  RH  100%=      5-min Rain = 0
KSW1 090536Z 32002KT M01/M01 A3031 RMK A01 T10081008  RH  100%=      5-min Rain = 0
KSW1 090537Z 31002KT M01/M01 A3031 RMK A01 T10081008  RH  100%=      5-min Rain = 0
KSW1 090538Z 31002KT M01/M01 A3031 RMK A01 T10081008  RH  100%=      5-min Rain = 0
KSW1 090539Z 31002KT M01/M01 A3031 RMK A01 T10081008  RH  100%=      5-min Rain = 0
KSW1 090540Z 31002KT M01/M01 A3031 RMK A01 T10081008  RH  100%=      5-min Rain = 0
KSW1 090541Z 31002KT M01/M01 A3031 RMK A01 T10081008  RH  100%=      5-min Rain = 0
KSW1 090542Z 31002KT M01/M01 A3031 RMK A01 T10081008  RH  100%=      5-min Rain = 0
KSW1 090543Z 30002KT M01/M01 A3031 RMK A01 T10081008  RH  100%=      5-min Rain = 0
KSW1 090544Z 30002KT M01/M01 A3031 RMK A01 T10081008  RH  100%=      5-min Rain = 0
KSW1 090545Z 29002KT M01/M01 A3031 RMK A01 T10091009  RH  100%=      5-min Rain = 0
KSW1 090546Z 28002KT M01/M01 A3031 RMK A01 T10091009  RH  100%=      5-min Rain = 0
KSW1 090547Z 28001KT M01/M01 A3031 RMK A01 T10101010  RH  100%=      5-min Rain = 0
KSW1 090548Z 28001KT M01/M01 A3031 RMK A01 T10111011  RH  100%=      5-min Rain = 0
KSW1 090549Z 28001KT M01/M01 A3031 RMK A01 T10111011  RH  100%=      5-min Rain = 0
KSW1 090550Z 27001KT M01/M01 A3031 RMK A01 T10111012  RH  100%=      5-min Rain = 0
KSW1 090551Z 28001KT M01/M01 A3031 RMK A01 T10121012  RH  100%=      5-min Rain = 0
KSW1 090552Z 28001KT M01/M01 A3031 RMK A01 T10121012  RH  100%=      5-min Rain = 0
KSW1 090553Z 28001KT M01/M01 A3031 RMK A01 T10131013  RH  100%=      5-min Rain = 0
KSW1 090554Z 27001KT M01/M01 A3031 RMK A01 T10131013  RH  100%=      5-min Rain = 0
KSW1 090555Z 27001KT M01/M01 A3031 RMK A01 T10131014  RH  100%=      5-min Rain = 0
KSW1 090556Z 27000KT M01/M01 A3031 RMK A01 T10141014  RH  100%=      5-min Rain = 0
KSW1 090557Z 26000KT M01/M01 A3031 RMK A01 T10141014  RH  100%=      5-min Rain = 0
KSW1 090558Z 27001KT M01/M01 A3031 RMK A01 T10141014  RH  100%=      5-min Rain = 0
KSW1 090559Z 27001KT M01/M01 A3031 RMK A01 T10141014  RH  100%=      5-min Rain = 0

Page generated in 0.1603 seconds.